Time,TemperatureF,DewpointF,PressureIn,WindDirection,WindDirectionDegrees,WindSpeedMPH,WindSpeedGustMPH,Humidity,HourlyPrecipIn,Conditions,Clouds,dailyrainin,SoftwareType,DateUTC
2013-04-03 00:02:00,22.8,12.8,30.34,WSW,257,0.0,0.0,65,0.00,,,0.00,Wunderground v.1.13,2013-04-03 05:02:00,
2013-04-03 00:03:00,22.7,12.7,30.34,WSW,257,0.0,0.0,65,0.00,,,0.00,Wunderground v.1.13,2013-04-03 05:03:00,
2013-04-03 00:05:00,22.8,12.8,30.34,WSW,257,0.0,0.0,65,0.00,,,0.00,Wunderground v.1.13,2013-04-03 05:05:00,
2013-04-03 00:06:00,22.8,12.8,30.34,WSW,257,0.0,0.0,65,0.00,,,0.00,Wunderground v.1.13,2013-04-03 05:06:00,
2013-04-03 00:07:00,22.7,12.7,30.34,WSW,257,0.0,0.0,65,0.00,,,0.00,Wunderground v.1.13,2013-04-03 05:07:00,
2013-04-03 00:10:00,22.7,12.7,30.34,WSW,257,0.0,0.0,65,0.00,,,0.00,Wunderground v.1.13,2013-04-03 05:10:00,
2013-04-03 00:11:00,22.7,12.7,30.34,WSW,257,0.0,0.0,65,0.00,,,0.00,Wunderground v.1.13,2013-04-03 05:11:00,
2013-04-03 00:14:00,22.6,12.6,30.34,WSW,257,0.0,0.0,65,0.00,,,0.00,Wunderground v.1.13,2013-04-03 05:14:00,
2013-04-03 00:16:00,22.5,12.5,30.34,WSW,257,0.0,0.0,65,0.00,,,0.00,Wunderground v.1.13,2013-04-03 05:16:00,
2013-04-03 00:17:00,22.5,12.5,30.34,WSW,257,0.0,0.0,65,0.00,,,0.00,Wunderground v.1.13,2013-04-03 05:17:00,
2013-04-03 00:18:00,22.5,12.8,30.34,WSW,257,0.0,1.0,66,0.00,,,0.00,Wunderground v.1.13,2013-04-03 05:18:00,
2013-04-03 00:22:00,22.4,12.8,30.34,WSW,257,1.0,2.0,66,0.00,,,0.00,Wunderground v.1.13,2013-04-03 05:22:00,
2013-04-03 00:23:00,22.4,12.8,30.34,WSW,257,1.0,2.0,66,0.00,,,0.00,Wunderground v.1.13,2013-04-03 05:23:00,
2013-04-03 00:28:00,22.2,12.6,30.34,WSW,257,1.0,1.0,66,0.00,,,0.00,Wunderground v.1.13,2013-04-03 05:28:00,
2013-04-03 00:31:00,22.1,12.5,30.34,WSW,257,1.0,1.0,66,0.00,,,0.00,Wunderground v.1.13,2013-04-03 05:31:00,
2013-04-03 00:33:00,22.0,12.7,30.34,WSW,257,1.0,1.0,67,0.00,,,0.00,Wunderground v.1.13,2013-04-03 05:33:00,
2013-04-03 00:36:00,22.0,12.7,30.34,WSW,257,1.0,1.0,67,0.00,,,0.00,Wunderground v.1.13,2013-04-03 05:36:00,
2013-04-03 00:41:00,21.8,12.5,30.34,WSW,257,1.0,1.0,67,0.00,,,0.00,Wunderground v.1.13,2013-04-03 05:41:00,
2013-04-03 00:42:00,21.8,12.5,30.34,WSW,257,1.0,1.0,67,0.00,,,0.00,Wunderground v.1.13,2013-04-03 05:42:00,
2013-04-03 00:43:00,21.8,12.5,30.34,WSW,257,1.0,1.0,67,0.00,,,0.00,Wunderground v.1.13,2013-04-03 05:43:00,
2013-04-03 00:48:00,21.6,12.3,30.34,WSW,257,1.0,1.0,67,0.00,,,0.00,Wunderground v.1.13,2013-04-03 05:48:00,
2013-04-03 00:49:00,21.6,12.3,30.34,WSW,257,0.0,1.0,67,0.00,,,0.00,Wunderground v.1.13,2013-04-03 05:49:00,
2013-04-03 00:55:00,21.4,12.5,30.34,WSW,257,0.0,0.0,68,0.00,,,0.00,Wunderground v.1.13,2013-04-03 05:55:00,
2013-04-03 00:57:00,21.3,12.4,30.34,WSW,257,0.0,0.0,68,0.00,,,0.00,Wunderground v.1.13,2013-04-03 05:57:00,
2013-04-03 00:58:00,21.3,12.7,30.34,WSW,257,0.0,0.0,69,0.00,,,0.00,Wunderground v.1.13,2013-04-03 05:58:00,
2013-04-03 01:01:00,21.2,12.6,30.34,WSW,257,0.0,0.0,69,0.00,,,0.00,Wunderground v.1.13,2013-04-03 06:01:00,
2013-04-03 01:02:00,21.2,12.6,30.34,WSW,257,0.0,0.0,69,0.00,,,0.00,Wunderground v.1.13,2013-04-03 06:02:00,
2013-04-03 01:03:00,21.1,12.5,30.34,WSW,257,0.0,2.0,69,0.00,,,0.00,Wunderground v.1.13,2013-04-03 06:03:00,
2013-04-03 01:04:00,21.1,12.8,30.34,WSW,257,0.0,2.0,70,0.00,,,0.00,Wunderground v.1.13,2013-04-03 06:04:00,
2013-04-03 01:09:00,20.9,13.0,30.34,WSW,257,0.0,2.0,71,0.00,,,0.00,Wunderground v.1.13,2013-04-03 06:09:00,
2013-04-03 01:10:00,20.9,13.0,30.34,WSW,257,1.0,2.0,71,0.00,,,0.00,Wunderground v.1.13,2013-04-03 06:10:00,
2013-04-03 01:11:00,20.8,12.9,30.34,WSW,257,1.0,2.0,71,0.00,,,0.00,Wunderground v.1.13,2013-04-03 06:11:00,
2013-04-03 01:12:00,20.8,12.9,30.34,WSW,257,1.0,2.0,71,0.00,,,0.00,Wunderground v.1.13,2013-04-03 06:12:00,
2013-04-03 01:15:00,20.9,13.0,30.35,WSW,257,1.0,1.0,71,0.00,,,0.00,Wunderground v.1.13,2013-04-03 06:15:00,
2013-04-03 01:17:00,21.0,13.1,30.35,WSW,257,1.0,1.0,71,0.00,,,0.00,Wunderground v.1.13,2013-04-03 06:17:00,
2013-04-03 01:19:00,20.9,13.0,30.35,WSW,257,1.0,1.0,71,0.00,,,0.00,Wunderground v.1.13,2013-04-03 06:19:00,
2013-04-03 01:21:00,20.8,12.6,30.35,WSW,257,1.0,1.0,70,0.00,,,0.00,Wunderground v.1.13,2013-04-03 06:21:00,
2013-04-03 01:22:00,20.7,12.8,30.35,WSW,257,1.0,1.0,71,0.00,,,0.00,Wunderground v.1.13,2013-04-03 06:22:00,
2013-04-03 01:27:00,20.4,12.5,30.35,WSW,257,1.0,1.0,71,0.00,,,0.00,Wunderground v.1.13,2013-04-03 06:27:00,
2013-04-03 01:28:00,20.3,12.4,30.35,WSW,257,1.0,1.0,71,0.00,,,0.00,Wunderground v.1.13,2013-04-03 06:28:00,
2013-04-03 01:32:00,20.1,12.5,30.35,WSW,257,0.0,0.0,72,0.00,,,0.00,Wunderground v.1.13,2013-04-03 06:32:00,
2013-04-03 01:33:00,20.1,12.5,30.35,WSW,257,0.0,0.0,72,0.00,,,0.00,Wunderground v.1.13,2013-04-03 06:33:00,
2013-04-03 01:34:00,20.1,12.5,30.35,WSW,257,0.0,0.0,72,0.00,,,0.00,Wunderground v.1.13,2013-04-03 06:34:00,
2013-04-03 01:38:00,20.1,12.8,30.35,WSW,257,0.0,2.0,73,0.00,,,0.00,Wunderground v.1.13,2013-04-03 06:38:00,
2013-04-03 01:40:00,20.1,12.8,30.35,WSW,257,0.0,1.0,73,0.00,,,0.00,Wunderground v.1.13,2013-04-03 06:40:00,
2013-04-03 01:42:00,20.1,12.8,30.35,WSW,257,1.0,2.0,73,0.00,,,0.00,Wunderground v.1.13,2013-04-03 06:42:00,
2013-04-03 01:45:00,20.3,13.0,30.35,WSW,257,1.0,1.0,73,0.00,,,0.00,Wunderground v.1.13,2013-04-03 06:45:00,
2013-04-03 01:47:00,20.3,13.0,30.35,WSW,257,1.0,1.0,73,0.00,,,0.00,Wunderground v.1.13,2013-04-03 06:47:00,
2013-04-03 01:48:00,20.3,13.0,30.35,WSW,257,1.0,1.0,73,0.00,,,0.00,Wunderground v.1.13,2013-04-03 06:48:00,
2013-04-03 01:53:00,20.4,12.8,30.35,WSW,257,1.0,1.0,72,0.00,,,0.00,Wunderground v.1.13,2013-04-03 06:53:00,
2013-04-03 01:56:00,20.3,12.4,30.35,WSW,257,1.0,1.0,71,0.00,,,0.00,Wunderground v.1.13,2013-04-03 06:56:00,
2013-04-03 01:57:00,20.2,12.3,30.35,WSW,257,1.0,1.0,71,0.00,,,0.00,Wunderground v.1.13,2013-04-03 06:57:00,
2013-04-03 02:00:00,20.1,12.5,30.35,WSW,257,1.0,1.0,72,0.00,,,0.00,Wunderground v.1.13,2013-04-03 07:00:00,
2013-04-03 02:02:00,20.1,12.5,30.35,WSW,257,1.0,1.0,72,0.00,,,0.00,Wunderground v.1.13,2013-04-03 07:02:00,
2013-04-03 02:03:00,20.1,12.5,30.35,WSW,257,1.0,1.0,72,0.00,,,0.00,Wunderground v.1.13,2013-04-03 07:03:00,
2013-04-03 02:07:00,19.9,12.6,30.35,WSW,257,0.0,0.0,73,0.00,,,0.00,Wunderground v.1.13,2013-04-03 07:07:00,
2013-04-03 02:11:00,19.7,12.4,30.35,WSW,257,0.0,0.0,73,0.00,,,0.00,Wunderground v.1.13,2013-04-03 07:11:00,
2013-04-03 02:14:00,19.6,12.7,30.35,WSW,257,0.0,0.0,74,0.00,,,0.00,Wunderground v.1.13,2013-04-03 07:14:00,
2013-04-03 02:18:00,19.3,12.4,30.35,WSW,257,0.0,0.0,74,0.00,,,0.00,Wunderground v.1.13,2013-04-03 07:18:00,
2013-04-03 02:19:00,19.3,12.4,30.35,WSW,257,0.0,0.0,74,0.00,,,0.00,Wunderground v.1.13,2013-04-03 07:19:00,
2013-04-03 02:22:00,19.1,12.2,30.35,WSW,257,0.0,0.0,74,0.00,,,0.00,Wunderground v.1.13,2013-04-03 07:22:00,
2013-04-03 02:23:00,19.0,12.1,30.35,WSW,257,0.0,0.0,74,0.00,,,0.00,Wunderground v.1.13,2013-04-03 07:23:00,
2013-04-03 02:28:00,18.8,12.2,30.35,WSW,257,0.0,0.0,75,0.00,,,0.00,Wunderground v.1.13,2013-04-03 07:28:00,
2013-04-03 02:30:00,18.7,12.1,30.35,WSW,257,0.0,0.0,75,0.00,,,0.00,Wunderground v.1.13,2013-04-03 07:30:00,
2013-04-03 02:31:00,18.7,12.4,30.35,WSW,257,0.0,0.0,76,0.00,,,0.00,Wunderground v.1.13,2013-04-03 07:31:00,
2013-04-03 02:34:00,18.6,12.3,30.35,WSW,257,0.0,0.0,76,0.00,,,0.00,Wunderground v.1.13,2013-04-03 07:34:00,
2013-04-03 02:35:00,18.6,12.3,30.35,WSW,257,0.0,0.0,76,0.00,,,0.00,Wunderground v.1.13,2013-04-03 07:35:00,
2013-04-03 02:36:00,18.5,12.2,30.35,WSW,257,0.0,0.0,76,0.00,,,0.00,Wunderground v.1.13,2013-04-03 07:36:00,
2013-04-03 02:37:00,18.5,12.2,30.35,WSW,257,0.0,0.0,76,0.00,,,0.00,Wunderground v.1.13,2013-04-03 07:37:00,
2013-04-03 02:40:00,18.4,12.4,30.35,WSW,257,0.0,0.0,77,0.00,,,0.00,Wunderground v.1.13,2013-04-03 07:40:00,
2013-04-03 02:42:00,18.4,12.4,30.35,WSW,257,0.0,0.0,77,0.00,,,0.00,Wunderground v.1.13,2013-04-03 07:42:00,
2013-04-03 02:43:00,18.3,12.3,30.35,WSW,257,0.0,0.0,77,0.00,,,0.00,Wunderground v.1.13,2013-04-03 07:43:00,
2013-04-03 02:45:00,18.3,12.3,30.35,WSW,257,0.0,0.0,77,0.00,,,0.00,Wunderground v.1.13,2013-04-03 07:45:00,
2013-04-03 02:49:00,18.2,12.2,30.35,WSW,257,0.0,0.0,77,0.00,,,0.00,Wunderground v.1.13,2013-04-03 07:49:00,
2013-04-03 02:50:00,18.2,12.2,30.35,WSW,257,0.0,0.0,77,0.00,,,0.00,Wunderground v.1.13,2013-04-03 07:50:00,
2013-04-03 02:54:00,18.0,12.0,30.35,WSW,257,0.0,0.0,77,0.00,,,0.00,Wunderground v.1.13,2013-04-03 07:54:00,
2013-04-03 02:57:00,17.8,12.1,30.35,WSW,257,0.0,0.0,78,0.00,,,0.00,Wunderground v.1.13,2013-04-03 07:57:00,
2013-04-03 02:59:00,17.8,12.1,30.35,WSW,257,0.0,0.0,78,0.00,,,0.00,Wunderground v.1.13,2013-04-03 07:59:00,
2013-04-03 03:01:00,17.7,12.0,30.35,WSW,257,0.0,0.0,78,0.00,,,0.00,Wunderground v.1.13,2013-04-03 08:01:00,
2013-04-03 03:05:00,17.7,12.3,30.35,WSW,257,0.0,1.0,79,0.00,,,0.00,Wunderground v.1.13,2013-04-03 08:05:00,
2013-04-03 03:08:00,17.7,12.3,30.35,WSW,257,0.0,1.0,79,0.00,,,0.00,Wunderground v.1.13,2013-04-03 08:08:00,
2013-04-03 03:10:00,17.7,12.3,30.35,WSW,257,0.0,0.0,79,0.00,,,0.00,Wunderground v.1.13,2013-04-03 08:10:00,
2013-04-03 03:12:00,17.7,12.3,30.35,WSW,257,0.0,0.0,79,0.00,,,0.00,Wunderground v.1.13,2013-04-03 08:12:00,
2013-04-03 03:14:00,17.6,12.2,30.34,WSW,257,0.0,0.0,79,0.00,,,0.00,Wunderground v.1.13,2013-04-03 08:14:00,
2013-04-03 03:15:00,17.6,12.2,30.35,WSW,257,0.0,0.0,79,0.00,,,0.00,Wunderground v.1.13,2013-04-03 08:15:00,
2013-04-03 03:20:00,17.5,12.4,30.35,WSW,257,0.0,0.0,80,0.00,,,0.00,Wunderground v.1.13,2013-04-03 08:20:00,
2013-04-03 03:23:00,17.4,12.3,30.35,WSW,257,0.0,0.0,80,0.00,,,0.00,Wunderground v.1.13,2013-04-03 08:23:00,
2013-04-03 03:25:00,17.4,12.3,30.35,WSW,257,0.0,0.0,80,0.00,,,0.00,Wunderground v.1.13,2013-04-03 08:25:00,
2013-04-03 03:30:00,17.2,12.1,30.35,WSW,257,0.0,0.0,80,0.00,,,0.00,Wunderground v.1.13,2013-04-03 08:30:00,
2013-04-03 03:31:00,17.2,12.1,30.35,WSW,257,0.0,0.0,80,0.00,,,0.00,Wunderground v.1.13,2013-04-03 08:31:00,
2013-04-03 03:32:00,17.1,12.0,30.35,WSW,257,0.0,0.0,80,0.00,,,0.00,Wunderground v.1.13,2013-04-03 08:32:00,
2013-04-03 03:34:00,17.1,12.0,30.35,WSW,257,0.0,0.0,80,0.00,,,0.00,Wunderground v.1.13,2013-04-03 08:34:00,
2013-04-03 03:38:00,17.0,12.2,30.35,WSW,257,0.0,0.0,81,0.00,,,0.00,Wunderground v.1.13,2013-04-03 08:38:00,
2013-04-03 03:39:00,17.0,12.2,30.35,WSW,257,0.0,0.0,81,0.00,,,0.00,Wunderground v.1.13,2013-04-03 08:39:00,
2013-04-03 03:41:00,16.9,12.1,30.35,WSW,257,0.0,0.0,81,0.00,,,0.00,Wunderground v.1.13,2013-04-03 08:41:00,
2013-04-03 03:45:00,16.8,12.0,30.35,WSW,257,0.0,0.0,81,0.00,,,0.00,Wunderground v.1.13,2013-04-03 08:45:00,
2013-04-03 03:47:00,16.8,12.0,30.35,WSW,257,0.0,1.0,81,0.00,,,0.00,Wunderground v.1.13,2013-04-03 08:47:00,
2013-04-03 03:48:00,16.8,12.0,30.35,WSW,257,0.0,1.0,81,0.00,,,0.00,Wunderground v.1.13,2013-04-03 08:48:00,
2013-04-03 03:49:00,16.8,12.0,30.35,WSW,257,0.0,1.0,81,0.00,,,0.00,Wunderground v.1.13,2013-04-03 08:49:00,
2013-04-03 03:51:00,16.8,12.0,30.35,WSW,257,0.0,0.0,81,0.00,,,0.00,Wunderground v.1.13,2013-04-03 08:51:00,
2013-04-03 03:54:00,16.8,12.0,30.35,WSW,257,0.0,1.0,81,0.00,,,0.00,Wunderground v.1.13,2013-04-03 08:54:00,
2013-04-03 03:55:00,16.8,12.0,30.35,WSW,257,0.0,1.0,81,0.00,,,0.00,Wunderground v.1.13,2013-04-03 08:55:00,
2013-04-03 03:57:00,16.8,12.0,30.35,WSW,257,1.0,1.0,81,0.00,,,0.00,Wunderground v.1.13,2013-04-03 08:57:00,
2013-04-03 03:58:00,16.8,12.0,30.35,WSW,257,1.0,1.0,81,0.00,,,0.00,Wunderground v.1.13,2013-04-03 08:58:00,
2013-04-03 04:02:00,16.8,12.0,30.35,WSW,257,1.0,1.0,81,0.00,,,0.00,Wunderground v.1.13,2013-04-03 09:02:00,
2013-04-03 04:03:00,16.8,12.3,30.35,WSW,257,1.0,1.0,82,0.00,,,0.00,Wunderground v.1.13,2013-04-03 09:03:00,
2013-04-03 04:07:00,16.7,12.2,30.35,WSW,257,1.0,1.0,82,0.00,,,0.00,Wunderground v.1.13,2013-04-03 09:07:00,
2013-04-03 04:08:00,16.7,12.2,30.35,WSW,257,0.0,1.0,82,0.00,,,0.00,Wunderground v.1.13,2013-04-03 09:08:00,
2013-04-03 04:09:00,16.6,12.1,30.35,WSW,257,0.0,1.0,82,0.00,,,0.00,Wunderground v.1.13,2013-04-03 09:09:00,
2013-04-03 04:13:00,16.5,12.0,30.35,WSW,257,0.0,0.0,82,0.00,,,0.00,Wunderground v.1.13,2013-04-03 09:13:00,
2013-04-03 04:14:00,16.5,12.0,30.35,WSW,257,0.0,0.0,82,0.00,,,0.00,Wunderground v.1.13,2013-04-03 09:14:00,
2013-04-03 04:18:00,16.3,11.8,30.35,WSW,257,0.0,0.0,82,0.00,,,0.00,Wunderground v.1.13,2013-04-03 09:18:00,
2013-04-03 04:19:00,16.3,11.8,30.35,WSW,257,0.0,0.0,82,0.00,,,0.00,Wunderground v.1.13,2013-04-03 09:19:00,
2013-04-03 04:20:00,16.3,11.8,30.35,WSW,257,0.0,0.0,82,0.00,,,0.00,Wunderground v.1.13,2013-04-03 09:20:00,
2013-04-03 04:24:00,16.2,11.7,30.35,WSW,257,0.0,0.0,82,0.00,,,0.00,Wunderground v.1.13,2013-04-03 09:24:00,
2013-04-03 04:25:00,16.1,11.6,30.35,WSW,257,0.0,0.0,82,0.00,,,0.00,Wunderground v.1.13,2013-04-03 09:25:00,
2013-04-03 04:27:00,16.1,11.8,30.35,WSW,257,0.0,0.0,83,0.00,,,0.00,Wunderground v.1.13,2013-04-03 09:27:00,
2013-04-03 04:30:00,16.0,11.7,30.35,WSW,257,0.0,0.0,83,0.00,,,0.00,Wunderground v.1.13,2013-04-03 09:30:00,
2013-04-03 04:31:00,16.0,11.7,30.35,WSW,257,0.0,0.0,83,0.00,,,0.00,Wunderground v.1.13,2013-04-03 09:31:00,
2013-04-03 04:33:00,15.9,11.7,30.35,WSW,257,0.0,0.0,83,0.00,,,0.00,Wunderground v.1.13,2013-04-03 09:33:00,
2013-04-03 04:36:00,15.8,11.6,30.35,WSW,257,0.0,0.0,83,0.00,,,0.00,Wunderground v.1.13,2013-04-03 09:36:00,
2013-04-03 04:39:00,15.8,11.6,30.35,WSW,257,0.0,0.0,83,0.00,,,0.00,Wunderground v.1.13,2013-04-03 09:39:00,
2013-04-03 04:42:00,15.7,11.5,30.35,WSW,257,0.0,0.0,83,0.00,,,0.00,Wunderground v.1.13,2013-04-03 09:42:00,
2013-04-03 04:45:00,15.7,11.5,30.35,WSW,257,0.0,0.0,83,0.00,,,0.00,Wunderground v.1.13,2013-04-03 09:45:00,
2013-04-03 04:47:00,15.8,11.8,30.35,WSW,257,0.0,0.0,84,0.00,,,0.00,Wunderground v.1.13,2013-04-03 09:47:00,
2013-04-03 04:49:00,15.8,11.8,30.35,WSW,257,0.0,0.0,84,0.00,,,0.00,Wunderground v.1.13,2013-04-03 09:49:00,
2013-04-03 04:53:00,15.8,11.8,30.35,WSW,257,0.0,0.0,84,0.00,,,0.00,Wunderground v.1.13,2013-04-03 09:53:00,
2013-04-03 04:55:00,15.8,11.8,30.35,WSW,257,0.0,0.0,84,0.00,,,0.00,Wunderground v.1.13,2013-04-03 09:55:00,
2013-04-03 04:56:00,15.7,11.7,30.35,WSW,257,0.0,0.0,84,0.00,,,0.00,Wunderground v.1.13,2013-04-03 09:56:00,
2013-04-03 04:58:00,15.7,11.7,30.35,WSW,257,0.0,0.0,84,0.00,,,0.00,Wunderground v.1.13,2013-04-03 09:58:00,
2013-04-03 05:03:00,15.6,11.6,30.35,WSW,257,0.0,0.0,84,0.00,,,0.00,Wunderground v.1.13,2013-04-03 10:03:00,
2013-04-03 05:07:00,15.6,11.6,30.35,WSW,257,0.0,0.0,84,0.00,,,0.00,Wunderground v.1.13,2013-04-03 10:07:00,
2013-04-03 05:08:00,15.6,11.6,30.35,WSW,257,0.0,0.0,84,0.00,,,0.00,Wunderground v.1.13,2013-04-03 10:08:00,
2013-04-03 05:09:00,15.6,11.6,30.35,WSW,257,0.0,0.0,84,0.00,,,0.00,Wunderground v.1.13,2013-04-03 10:09:00,
2013-04-03 05:11:00,15.5,11.5,30.35,WSW,257,0.0,0.0,84,0.00,,,0.00,Wunderground v.1.13,2013-04-03 10:11:00,
2013-04-03 05:13:00,15.4,11.4,30.36,WSW,257,0.0,0.0,84,0.00,,,0.00,Wunderground v.1.13,2013-04-03 10:13:00,
2013-04-03 05:18:00,15.3,11.3,30.36,WSW,257,0.0,0.0,84,0.00,,,0.00,Wunderground v.1.13,2013-04-03 10:18:00,
2013-04-03 05:19:00,15.2,11.2,30.36,WSW,257,0.0,0.0,84,0.00,,,0.00,Wunderground v.1.13,2013-04-03 10:19:00,
2013-04-03 05:20:00,15.2,11.2,30.36,WSW,257,0.0,0.0,84,0.00,,,0.00,Wunderground v.1.13,2013-04-03 10:20:00,
2013-04-03 05:24:00,15.2,11.2,30.36,WSW,257,0.0,0.0,84,0.00,,,0.00,Wunderground v.1.13,2013-04-03 10:24:00,
2013-04-03 05:25:00,15.1,11.1,30.36,WSW,257,0.0,0.0,84,0.00,,,0.00,Wunderground v.1.13,2013-04-03 10:25:00,
2013-04-03 05:26:00,15.1,11.1,30.36,WSW,257,0.0,0.0,84,0.00,,,0.00,Wunderground v.1.13,2013-04-03 10:26:00,
2013-04-03 05:30:00,14.9,10.9,30.36,WSW,257,0.0,0.0,84,0.00,,,0.00,Wunderground v.1.13,2013-04-03 10:30:00,
2013-04-03 05:31:00,15.0,11.3,30.36,WSW,257,0.0,0.0,85,0.00,,,0.00,Wunderground v.1.13,2013-04-03 10:31:00,
2013-04-03 05:32:00,14.9,11.2,30.36,WSW,257,0.0,0.0,85,0.00,,,0.00,Wunderground v.1.13,2013-04-03 10:32:00,
2013-04-03 05:37:00,14.8,10.8,30.36,WSW,257,0.0,0.0,84,0.00,,,0.00,Wunderground v.1.13,2013-04-03 10:37:00,
2013-04-03 05:38:00,14.7,10.7,30.36,WSW,257,0.0,0.0,84,0.00,,,0.00,Wunderground v.1.13,2013-04-03 10:38:00,
2013-04-03 05:39:00,14.7,11.0,30.36,WSW,257,0.0,0.0,85,0.00,,,0.00,Wunderground v.1.13,2013-04-03 10:39:00,
2013-04-03 05:43:00,14.5,10.8,30.36,WSW,257,0.0,0.0,85,0.00,,,0.00,Wunderground v.1.13,2013-04-03 10:43:00,
2013-04-03 05:44:00,14.5,10.8,30.35,WSW,257,0.0,0.0,85,0.00,,,0.00,Wunderground v.1.13,2013-04-03 10:44:00,
2013-04-03 05:47:00,14.4,10.7,30.36,WSW,257,0.0,0.0,85,0.00,,,0.00,Wunderground v.1.13,2013-04-03 10:47:00,
2013-04-03 05:51:00,14.4,10.7,30.36,WSW,257,0.0,0.0,85,0.00,,,0.00,Wunderground v.1.13,2013-04-03 10:51:00,
2013-04-03 05:52:00,14.4,10.7,30.36,WSW,257,0.0,0.0,85,0.00,,,0.00,Wunderground v.1.13,2013-04-03 10:52:00,
2013-04-03 05:53:00,14.4,10.7,30.36,WSW,257,0.0,0.0,85,0.00,,,0.00,Wunderground v.1.13,2013-04-03 10:53:00,
2013-04-03 05:57:00,14.5,10.8,30.36,WSW,257,0.0,0.0,85,0.00,,,0.00,Wunderground v.1.13,2013-04-03 10:57:00,
2013-04-03 05:58:00,14.5,10.8,30.35,WSW,257,0.0,0.0,85,0.00,,,0.00,Wunderground v.1.13,2013-04-03 10:58:00,
2013-04-03 06:00:00,14.6,10.9,30.35,WSW,257,0.0,0.0,85,0.00,,,0.00,Wunderground v.1.13,2013-04-03 11:00:00,
2013-04-03 06:06:00,14.7,11.0,30.35,WSW,257,0.0,0.0,85,0.00,,,0.00,Wunderground v.1.13,2013-04-03 11:06:00,
2013-04-03 06:07:00,14.7,11.0,30.35,WSW,257,0.0,0.0,85,0.00,,,0.00,Wunderground v.1.13,2013-04-03 11:07:00,
2013-04-03 06:08:00,14.7,11.0,30.35,WSW,257,0.0,0.0,85,0.00,,,0.00,Wunderground v.1.13,2013-04-03 11:08:00,
2013-04-03 06:12:00,14.7,11.3,30.35,WSW,257,0.0,0.0,86,0.00,,,0.00,Wunderground v.1.13,2013-04-03 11:12:00,
2013-04-03 06:13:00,14.7,11.3,30.35,WSW,257,0.0,0.0,86,0.00,,,0.00,Wunderground v.1.13,2013-04-03 11:13:00,
2013-04-03 06:14:00,14.7,11.3,30.35,WSW,257,0.0,0.0,86,0.00,,,0.00,Wunderground v.1.13,2013-04-03 11:14:00,
2013-04-03 06:18:00,14.7,11.3,30.35,WSW,257,0.0,0.0,86,0.00,,,0.00,Wunderground v.1.13,2013-04-03 11:18:00,
2013-04-03 06:19:00,14.7,11.3,30.35,WSW,257,0.0,0.0,86,0.00,,,0.00,Wunderground v.1.13,2013-04-03 11:19:00,
2013-04-03 06:20:00,14.7,11.3,30.35,WSW,257,0.0,0.0,86,0.00,,,0.00,Wunderground v.1.13,2013-04-03 11:20:00,
2013-04-03 06:24:00,14.7,11.3,30.35,WSW,257,0.0,0.0,86,0.00,,,0.00,Wunderground v.1.13,2013-04-03 11:24:00,
2013-04-03 06:28:00,14.7,11.3,30.35,WSW,257,0.0,0.0,86,0.00,,,0.00,Wunderground v.1.13,2013-04-03 11:28:00,
2013-04-03 06:32:00,14.6,11.2,30.35,WSW,257,0.0,0.0,86,0.00,,,0.00,Wunderground v.1.13,2013-04-03 11:32:00,
2013-04-03 06:35:00,14.5,11.1,30.36,WSW,257,0.0,0.0,86,0.00,,,0.00,Wunderground v.1.13,2013-04-03 11:35:00,
2013-04-03 06:38:00,14.5,11.1,30.36,WSW,257,0.0,0.0,86,0.00,,,0.00,Wunderground v.1.13,2013-04-03 11:38:00,
2013-04-03 06:39:00,14.5,11.1,30.36,WSW,257,0.0,0.0,86,0.00,,,0.00,Wunderground v.1.13,2013-04-03 11:39:00,
2013-04-03 06:41:00,14.5,11.1,30.35,WSW,257,0.0,0.0,86,0.00,,,0.00,Wunderground v.1.13,2013-04-03 11:41:00,
2013-04-03 06:43:00,14.5,11.1,30.36,WSW,257,0.0,0.0,86,0.00,,,0.00,Wunderground v.1.13,2013-04-03 11:43:00,
2013-04-03 06:44:00,14.5,11.1,30.36,WSW,257,0.0,0.0,86,0.00,,,0.00,Wunderground v.1.13,2013-04-03 11:44:00,
2013-04-03 06:47:00,14.5,11.1,30.36,WSW,257,0.0,0.0,86,0.00,,,0.00,Wunderground v.1.13,2013-04-03 11:47:00,
2013-04-03 06:50:00,14.4,11.0,30.36,WSW,257,0.0,0.0,86,0.00,,,0.00,Wunderground v.1.13,2013-04-03 11:50:00,
2013-04-03 06:53:00,14.4,11.0,30.36,WSW,257,0.0,0.0,86,0.00,,,0.00,Wunderground v.1.13,2013-04-03 11:53:00,
2013-04-03 06:56:00,14.5,11.1,30.36,WSW,257,0.0,0.0,86,0.00,,,0.00,Wunderground v.1.13,2013-04-03 11:56:00,
2013-04-03 06:57:00,14.5,11.1,30.36,WSW,257,0.0,0.0,86,0.00,,,0.00,Wunderground v.1.13,2013-04-03 11:57:00,
2013-04-03 07:00:00,14.4,11.0,30.36,WSW,257,0.0,0.0,86,0.00,,,0.00,Wunderground v.1.13,2013-04-03 12:00:00,
2013-04-03 07:01:00,14.4,11.0,30.36,WSW,257,0.0,0.0,86,0.00,,,0.00,Wunderground v.1.13,2013-04-03 12:01:00,
2013-04-03 07:07:00,14.1,10.4,30.36,WSW,257,0.0,2.0,85,0.00,,,0.00,Wunderground v.1.13,2013-04-03 12:07:00,
2013-04-03 07:08:00,14.1,10.4,30.36,WSW,257,1.0,2.0,85,0.00,,,0.00,Wunderground v.1.13,2013-04-03 12:08:00,
2013-04-03 07:12:00,14.0,10.6,30.36,WSW,257,1.0,1.0,86,0.00,,,0.00,Wunderground v.1.13,2013-04-03 12:12:00,
2013-04-03 07:13:00,14.0,10.6,30.36,WSW,257,1.0,1.0,86,0.00,,,0.00,Wunderground v.1.13,2013-04-03 12:13:00,
2013-04-03 07:14:00,14.0,10.6,30.36,WSW,257,1.0,1.0,86,0.00,,,0.00,Wunderground v.1.13,2013-04-03 12:14:00,
2013-04-03 07:16:00,14.1,10.7,30.36,WSW,257,1.0,1.0,86,0.00,,,0.00,Wunderground v.1.13,2013-04-03 12:16:00,
2013-04-03 07:22:00,14.9,11.5,30.36,WSW,257,0.0,0.0,86,0.00,,,0.00,Wunderground v.1.13,2013-04-03 12:22:00,
2013-04-03 07:23:00,15.0,11.6,30.36,WSW,257,0.0,0.0,86,0.00,,,0.00,Wunderground v.1.13,2013-04-03 12:23:00,
2013-04-03 07:27:00,15.7,12.5,30.36,WSW,257,0.0,0.0,87,0.00,,,0.00,Wunderground v.1.13,2013-04-03 12:27:00,
2013-04-03 07:28:00,15.9,12.5,30.36,WSW,257,0.0,0.0,86,0.00,,,0.00,Wunderground v.1.13,2013-04-03 12:28:00,
2013-04-03 07:30:00,16.1,12.7,30.36,WSW,257,0.0,1.0,86,0.00,,,0.00,Wunderground v.1.13,2013-04-03 12:30:00,
2013-04-03 07:31:00,16.2,12.7,30.36,WSW,257,0.0,1.0,86,0.00,,,0.00,Wunderground v.1.13,2013-04-03 12:31:00,
2013-04-03 07:36:00,16.6,13.1,30.36,WSW,257,1.0,1.0,86,0.00,,,0.00,Wunderground v.1.13,2013-04-03 12:36:00,
2013-04-03 07:39:00,16.9,13.2,30.36,WSW,257,1.0,1.0,85,0.00,,,0.00,Wunderground v.1.13,2013-04-03 12:39:00,
2013-04-03 07:43:00,17.5,13.8,30.36,WSW,257,1.0,1.0,85,0.00,,,0.00,Wunderground v.1.13,2013-04-03 12:43:00,
2013-04-03 07:44:00,17.6,13.9,30.36,WSW,257,0.0,1.0,85,0.00,,,0.00,Wunderground v.1.13,2013-04-03 12:44:00,
2013-04-03 07:47:00,18.1,14.4,30.36,WSW,257,0.0,0.0,85,0.00,,,0.00,Wunderground v.1.13,2013-04-03 12:47:00,
2013-04-03 07:49:00,18.5,14.5,30.36,WSW,257,0.0,0.0,84,0.00,,,0.00,Wunderground v.1.13,2013-04-03 12:49:00,
2013-04-03 07:51:00,18.7,14.7,30.36,WSW,257,0.0,0.0,84,0.00,,,0.00,Wunderground v.1.13,2013-04-03 12:51:00,
2013-04-03 07:53:00,18.9,14.6,30.36,WSW,257,0.0,0.0,83,0.00,,,0.00,Wunderground v.1.13,2013-04-03 12:53:00,
2013-04-03 07:55:00,19.1,14.8,30.36,WSW,257,0.0,0.0,83,0.00,,,0.00,Wunderground v.1.13,2013-04-03 12:55:00,
2013-04-03 07:59:00,19.7,15.1,30.36,WSW,257,0.0,0.0,82,0.00,,,0.00,Wunderground v.1.13,2013-04-03 12:59:00,
2013-04-03 08:02:00,20.1,15.2,30.37,WSW,257,0.0,0.0,81,0.00,,,0.00,Wunderground v.1.13,2013-04-03 13:02:00,
2013-04-03 08:03:00,20.1,15.2,30.37,WSW,257,0.0,0.0,81,0.00,,,0.00,Wunderground v.1.13,2013-04-03 13:03:00,
2013-04-03 08:08:00,20.4,14.9,30.37,WSW,257,0.0,0.0,79,0.00,,,0.00,Wunderground v.1.13,2013-04-03 13:08:00,
2013-04-03 08:09:00,20.4,14.6,30.37,WSW,257,0.0,0.0,78,0.00,,,0.00,Wunderground v.1.13,2013-04-03 13:09:00,
2013-04-03 08:10:00,20.5,14.7,30.37,WSW,257,0.0,0.0,78,0.00,,,0.00,Wunderground v.1.13,2013-04-03 13:10:00,
2013-04-03 08:14:00,20.8,15.0,30.37,WSW,257,0.0,0.0,78,0.00,,,0.00,Wunderground v.1.13,2013-04-03 13:14:00,
2013-04-03 08:15:00,20.9,14.8,30.37,WSW,257,0.0,0.0,77,0.00,,,0.00,Wunderground v.1.13,2013-04-03 13:15:00,
2013-04-03 08:17:00,21.0,14.9,30.37,WSW,257,0.0,0.0,77,0.00,,,0.00,Wunderground v.1.13,2013-04-03 13:17:00,
2013-04-03 08:18:00,21.1,14.7,30.37,WSW,257,0.0,0.0,76,0.00,,,0.00,Wunderground v.1.13,2013-04-03 13:18:00,
2013-04-03 08:21:00,21.4,15.0,30.37,WSW,257,0.0,0.0,76,0.00,,,0.00,Wunderground v.1.13,2013-04-03 13:21:00,
2013-04-03 08:24:00,21.7,15.0,30.37,WSW,257,0.0,0.0,75,0.00,,,0.00,Wunderground v.1.13,2013-04-03 13:24:00,
2013-04-03 08:25:00,21.8,14.8,30.37,WSW,257,0.0,0.0,74,0.00,,,0.00,Wunderground v.1.13,2013-04-03 13:25:00,
2013-04-03 08:26:00,21.9,14.9,30.37,WSW,257,0.0,0.0,74,0.00,,,0.00,Wunderground v.1.13,2013-04-03 13:26:00,
2013-04-03 08:27:00,22.1,15.1,30.37,WSW,257,0.0,0.0,74,0.00,,,0.00,Wunderground v.1.13,2013-04-03 13:27:00,
2013-04-03 08:31:00,22.5,15.1,30.37,WSW,257,0.0,2.0,73,0.00,,,0.00,Wunderground v.1.13,2013-04-03 13:31:00,
2013-04-03 08:33:00,22.9,15.5,30.37,WSW,257,0.0,2.0,73,0.00,,,0.00,Wunderground v.1.13,2013-04-03 13:33:00,
2013-04-03 08:37:00,23.4,15.4,30.37,WSW,257,1.0,2.0,71,0.00,,,0.00,Wunderground v.1.13,2013-04-03 13:37:00,
2013-04-03 08:38:00,23.5,15.5,30.37,WSW,257,1.0,2.0,71,0.00,,,0.00,Wunderground v.1.13,2013-04-03 13:38:00,
2013-04-03 08:39:00,23.6,15.6,30.37,WSW,257,1.0,2.0,71,0.00,,,0.00,Wunderground v.1.13,2013-04-03 13:39:00,
2013-04-03 08:42:00,24.1,15.7,30.37,WSW,257,1.0,2.0,70,0.00,,,0.00,Wunderground v.1.13,2013-04-03 13:42:00,
2013-04-03 08:43:00,24.3,15.9,30.37,WSW,257,1.0,2.0,70,0.00,,,0.00,Wunderground v.1.13,2013-04-03 13:43:00,
2013-04-03 08:44:00,24.4,16.0,30.37,WSW,257,1.0,2.0,70,0.00,,,0.00,Wunderground v.1.13,2013-04-03 13:44:00,
2013-04-03 08:46:00,24.9,16.2,30.37,WSW,257,1.0,2.0,69,0.00,,,0.00,Wunderground v.1.13,2013-04-03 13:46:00,
2013-04-03 08:48:00,25.3,16.2,30.36,WSW,257,1.0,2.0,68,0.00,,,0.00,Wunderground v.1.13,2013-04-03 13:48:00,
2013-04-03 08:51:00,25.6,15.8,30.37,WSW,257,2.0,4.0,66,0.00,,,0.00,Wunderground v.1.13,2013-04-03 13:51:00,
2013-04-03 08:53:00,26.0,16.2,30.36,SE,141,3.0,4.0,66,0.00,,,0.00,Wunderground v.1.13,2013-04-03 13:53:00,
2013-04-03 08:57:00,26.7,16.9,30.36,SE,137,3.0,6.0,66,0.00,,,0.00,Wunderground v.1.13,2013-04-03 13:57:00,
2013-04-03 08:58:00,27.0,16.8,30.36,SE,137,4.0,6.0,65,0.00,,,0.00,Wunderground v.1.13,2013-04-03 13:58:00,
2013-04-03 09:00:00,27.5,16.9,30.36,SE,137,4.0,4.0,64,0.00,,,0.00,Wunderground v.1.13,2013-04-03 14:00:00,
2013-04-03 09:03:00,27.8,16.8,30.37,SE,137,4.0,5.0,63,0.00,,,0.00,Wunderground v.1.13,2013-04-03 14:03:00,
2013-04-03 09:06:00,28.0,17.0,30.37,SE,137,4.0,6.0,63,0.00,,,0.00,Wunderground v.1.13,2013-04-03 14:06:00,
2013-04-03 09:09:00,28.3,16.9,30.36,SE,137,5.0,6.0,62,0.00,,,0.00,Wunderground v.1.13,2013-04-03 14:09:00,
2013-04-03 09:10:00,28.4,17.0,30.36,SE,137,5.0,5.0,62,0.00,,,0.00,Wunderground v.1.13,2013-04-03 14:10:00,
2013-04-03 09:14:00,29.1,17.3,30.36,SE,137,5.0,5.0,61,0.00,,,0.00,Wunderground v.1.13,2013-04-03 14:14:00,
2013-04-03 09:15:00,29.2,17.4,30.36,SE,137,5.0,5.0,61,0.00,,,0.00,Wunderground v.1.13,2013-04-03 14:15:00,
2013-04-03 09:16:00,29.3,17.1,30.36,SE,136,5.0,5.0,60,0.00,,,0.00,Wunderground v.1.13,2013-04-03 14:16:00,
2013-04-03 09:21:00,30.3,17.3,30.36,SE,134,5.0,6.0,58,0.00,,,0.00,Wunderground v.1.13,2013-04-03 14:21:00,
2013-04-03 09:22:00,30.5,17.1,30.36,SE,125,5.0,6.0,57,0.00,,,0.00,Wunderground v.1.13,2013-04-03 14:22:00,
2013-04-03 09:23:00,30.7,17.3,30.36,SE,125,5.0,6.0,57,0.00,,,0.00,Wunderground v.1.13,2013-04-03 14:23:00,
2013-04-03 09:26:00,30.9,17.0,30.36,SE,129,5.0,5.0,56,0.00,,,0.00,Wunderground v.1.13,2013-04-03 14:26:00,
2013-04-03 09:27:00,31.1,17.2,30.36,SE,129,5.0,6.0,56,0.00,,,0.00,Wunderground v.1.13,2013-04-03 14:27:00,
2013-04-03 09:29:00,31.3,17.0,30.36,SE,137,5.0,6.0,55,0.00,,,0.00,Wunderground v.1.13,2013-04-03 14:29:00,
2013-04-03 09:31:00,31.3,16.6,30.36,SE,130,5.0,7.0,54,0.00,,,0.00,Wunderground v.1.13,2013-04-03 14:31:00,
2013-04-03 09:34:00,31.3,16.6,30.36,SE,128,5.0,7.0,54,0.00,,,0.00,Wunderground v.1.13,2013-04-03 14:34:00,
2013-04-03 09:35:00,31.5,17.2,30.36,SE,128,6.0,6.0,55,0.00,,,0.00,Wunderground v.1.13,2013-04-03 14:35:00,
2013-04-03 09:38:00,31.6,16.4,30.36,SE,137,6.0,10.0,53,0.00,,,0.00,Wunderground v.1.13,2013-04-03 14:38:00,
2013-04-03 09:40:00,31.8,17.0,30.35,SE,136,6.0,6.0,54,0.00,,,0.00,Wunderground v.1.13,2013-04-03 14:40:00,
2013-04-03 09:41:00,31.9,16.7,30.35,ESE,115,6.0,7.0,53,0.00,,,0.00,Wunderground v.1.13,2013-04-03 14:41:00,
2013-04-03 09:43:00,32.1,16.9,30.35,SE,132,6.0,8.0,53,0.00,,,0.00,Wunderground v.1.13,2013-04-03 14:43:00,
2013-04-03 09:46:00,32.3,16.6,30.35,ESE,120,6.0,7.0,52,0.00,,,0.00,Wunderground v.1.13,2013-04-03 14:46:00,
2013-04-03 09:50:00,32.7,16.5,30.35,South,182,5.0,5.0,51,0.00,,,0.00,Wunderground v.1.13,2013-04-03 14:50:00,
2013-04-03 09:51:00,32.8,16.6,30.35,ESE,116,5.0,6.0,51,0.00,,,0.00,Wunderground v.1.13,2013-04-03 14:51:00,
2013-04-03 09:53:00,33.1,16.5,30.35,SE,125,5.0,8.0,50,0.00,,,0.00,Wunderground v.1.13,2013-04-03 14:53:00,
2013-04-03 09:57:00,33.1,16.9,30.35,SE,141,6.0,9.0,51,0.00,,,0.00,Wunderground v.1.13,2013-04-03 14:57:00,
2013-04-03 09:58:00,33.2,17.0,30.35,SE,129,6.0,9.0,51,0.00,,,0.00,Wunderground v.1.13,2013-04-03 14:58:00,
2013-04-03 10:01:00,33.6,16.5,30.35,South,188,5.0,8.0,49,0.00,,,0.00,Wunderground v.1.13,2013-04-03 15:01:00,
2013-04-03 10:02:00,33.6,16.0,30.35,SE,137,5.0,8.0,48,0.00,,,0.00,Wunderground v.1.13,2013-04-03 15:02:00,
2013-04-03 10:07:00,33.9,16.7,30.34,SE,128,5.0,9.0,49,0.00,,,0.00,Wunderground v.1.13,2013-04-03 15:07:00,
2013-04-03 10:08:00,33.9,15.8,30.34,WSW,237,5.0,9.0,47,0.00,,,0.00,Wunderground v.1.13,2013-04-03 15:08:00,
2013-04-03 10:10:00,34.0,15.9,30.34,SSE,163,5.0,5.0,47,0.00,,,0.00,Wunderground v.1.13,2013-04-03 15:10:00,
2013-04-03 10:13:00,34.2,16.0,30.34,SSE,166,5.0,10.0,47,0.00,,,0.00,Wunderground v.1.13,2013-04-03 15:13:00,
2013-04-03 10:15:00,34.3,16.1,30.35,ESE,119,6.0,8.0,47,0.00,,,0.00,Wunderground v.1.13,2013-04-03 15:15:00,
2013-04-03 10:17:00,34.4,17.2,30.34,ESE,117,6.0,8.0,49,0.00,,,0.00,Wunderground v.1.13,2013-04-03 15:17:00,
2013-04-03 10:20:00,34.8,16.6,30.34,SE,128,6.0,6.0,47,0.00,,,0.00,Wunderground v.1.13,2013-04-03 15:20:00,
2013-04-03 10:22:00,34.5,16.3,30.34,ESE,119,7.0,11.0,47,0.00,,,0.00,Wunderground v.1.13,2013-04-03 15:22:00,
2013-04-03 10:23:00,34.3,16.1,30.34,SE,133,7.0,11.0,47,0.00,,,0.00,Wunderground v.1.13,2013-04-03 15:23:00,
2013-04-03 10:28:00,34.8,16.6,30.34,South,180,7.0,9.0,47,0.00,,,0.00,Wunderground v.1.13,2013-04-03 15:28:00,
2013-04-03 10:29:00,34.8,16.6,30.34,SE,128,7.0,9.0,47,0.00,,,0.00,Wunderground v.1.13,2013-04-03 15:29:00,
2013-04-03 10:30:00,34.8,17.1,30.34,SE,126,7.0,15.0,48,0.00,,,0.00,Wunderground v.1.13,2013-04-03 15:30:00,
2013-04-03 10:35:00,34.8,16.6,30.34,ESE,122,7.0,15.0,47,0.00,,,0.00,Wunderground v.1.13,2013-04-03 15:35:00,
2013-04-03 10:37:00,34.5,16.8,30.33,SE,132,8.0,15.0,48,0.00,,,0.00,Wunderground v.1.13,2013-04-03 15:37:00,
2013-04-03 10:39:00,34.8,16.6,30.33,SW,229,8.0,15.0,47,0.00,,,0.00,Wunderground v.1.13,2013-04-03 15:39:00,
2013-04-03 10:40:00,34.8,16.1,30.33,SW,224,8.0,8.0,46,0.00,,,0.00,Wunderground v.1.13,2013-04-03 15:40:00,
2013-04-03 10:42:00,35.4,16.6,30.33,ESE,123,7.0,8.0,46,0.00,,,0.00,Wunderground v.1.13,2013-04-03 15:42:00,
2013-04-03 10:45:00,35.7,15.9,30.33,SSW,211,6.0,6.0,44,0.00,,,0.00,Wunderground v.1.13,2013-04-03 15:45:00,
2013-04-03 10:48:00,36.1,15.7,30.32,SE,125,5.0,8.0,43,0.00,,,0.00,Wunderground v.1.13,2013-04-03 15:48:00,
2013-04-03 10:50:00,36.2,15.8,30.32,ESE,122,5.0,5.0,43,0.00,,,0.00,Wunderground v.1.13,2013-04-03 15:50:00,
2013-04-03 10:51:00,36.3,15.4,30.32,ESE,115,5.0,5.0,42,0.00,,,0.00,Wunderground v.1.13,2013-04-03 15:51:00,
2013-04-03 10:55:00,36.3,14.8,30.32,South,171,5.0,5.0,41,0.00,,,0.00,Wunderground v.1.13,2013-04-03 15:55:00,
2013-04-03 10:56:00,36.3,16.4,30.32,SE,129,5.0,6.0,44,0.00,,,0.00,Wunderground v.1.13,2013-04-03 15:56:00,
2013-04-03 11:00:00,35.4,16.1,30.32,ESE,121,7.0,13.0,45,0.00,,,0.00,Wunderground v.1.13,2013-04-03 16:00:00,
2013-04-03 11:02:00,34.9,15.2,30.32,ESE,113,8.0,14.0,44,0.00,,,0.00,Wunderground v.1.13,2013-04-03 16:02:00,
2013-04-03 11:03:00,34.8,16.1,30.32,SE,125,9.0,14.0,46,0.00,,,0.00,Wunderground v.1.13,2013-04-03 16:03:00,
2013-04-03 11:08:00,34.8,15.6,30.32,SE,140,12.0,18.0,45,0.00,,,0.00,Wunderground v.1.13,2013-04-03 16:08:00,
2013-04-03 11:12:00,35.7,14.8,30.32,SE,125,10.0,11.0,42,0.00,,,0.00,Wunderground v.1.13,2013-04-03 16:12:00,
2013-04-03 11:14:00,35.9,14.5,30.31,ESE,115,9.0,11.0,41,0.00,,,0.00,Wunderground v.1.13,2013-04-03 16:14:00,
2013-04-03 11:17:00,36.4,14.9,30.31,ESE,115,6.0,8.0,41,0.00,,,0.00,Wunderground v.1.13,2013-04-03 16:17:00,
2013-04-03 11:18:00,36.5,15.6,30.31,SW,221,6.0,8.0,42,0.00,,,0.00,Wunderground v.1.13,2013-04-03 16:18:00,
2013-04-03 11:22:00,37.0,16.5,30.31,SSE,159,6.0,6.0,43,0.00,,,0.00,Wunderground v.1.13,2013-04-03 16:22:00,
2013-04-03 11:23:00,37.1,15.5,30.31,SE,129,5.0,6.0,41,0.00,,,0.00,Wunderground v.1.13,2013-04-03 16:23:00,
2013-04-03 11:24:00,37.3,15.7,30.31,WSW,242,5.0,6.0,41,0.00,,,0.00,Wunderground v.1.13,2013-04-03 16:24:00,
2013-04-03 11:30:00,37.1,16.1,30.31,SE,135,10.0,15.0,42,0.00,,,0.00,Wunderground v.1.13,2013-04-03 16:30:00,
2013-04-03 11:31:00,37.0,15.5,30.31,ESE,121,6.0,7.0,41,0.00,,,0.00,Wunderground v.1.13,2013-04-03 16:31:00,
2013-04-03 11:35:00,37.5,17.0,30.31,South,187,7.0,7.0,43,0.00,,,0.00,Wunderground v.1.13,2013-04-03 16:35:00,
2013-04-03 11:37:00,37.6,15.4,30.31,SE,132,6.0,7.0,40,0.00,,,0.00,Wunderground v.1.13,2013-04-03 16:37:00,
2013-04-03 11:38:00,37.6,16.0,30.31,ESE,123,6.0,11.0,41,0.00,,,0.00,Wunderground v.1.13,2013-04-03 16:38:00,
2013-04-03 11:42:00,36.8,15.3,30.30,SW,222,7.0,7.0,41,0.00,,,0.00,Wunderground v.1.13,2013-04-03 16:42:00,
2013-04-03 11:43:00,36.9,15.9,30.31,SE,129,7.0,7.0,42,0.00,,,0.00,Wunderground v.1.13,2013-04-03 16:43:00,
2013-04-03 11:44:00,36.9,15.4,30.30,ESE,110,7.0,12.0,41,0.00,,,0.00,Wunderground v.1.13,2013-04-03 16:44:00,
2013-04-03 11:47:00,36.5,15.6,30.30,SSW,198,8.0,12.0,42,0.00,,,0.00,Wunderground v.1.13,2013-04-03 16:47:00,
2013-04-03 11:50:00,36.7,16.3,30.30,SE,125,8.0,8.0,43,0.00,,,0.00,Wunderground v.1.13,2013-04-03 16:50:00,
2013-04-03 11:52:00,37.2,16.2,30.29,SE,124,7.0,8.0,42,0.00,,,0.00,Wunderground v.1.13,2013-04-03 16:52:00,
2013-04-03 11:57:00,37.7,16.6,30.29,ESE,119,6.0,7.0,42,0.00,,,0.00,Wunderground v.1.13,2013-04-03 16:57:00,
2013-04-03 11:58:00,37.7,16.1,30.29,ESE,123,6.0,8.0,41,0.00,,,0.00,Wunderground v.1.13,2013-04-03 16:58:00,
2013-04-03 11:59:00,37.7,16.1,30.29,ESE,115,6.0,8.0,41,0.00,,,0.00,Wunderground v.1.13,2013-04-03 16:59:00,
2013-04-03 12:00:00,37.5,15.9,30.29,ESE,119,6.0,12.0,41,0.00,,,0.00,Wunderground v.1.13,2013-04-03 17:00:00,
2013-04-03 12:05:00,37.6,17.1,30.28,ESE,114,7.0,8.0,43,0.00,,,0.00,Wunderground v.1.13,2013-04-03 17:05:00,
2013-04-03 12:07:00,37.8,16.2,30.28,ESE,112,8.0,11.0,41,0.00,,,0.00,Wunderground v.1.13,2013-04-03 17:07:00,
2013-04-03 12:08:00,37.6,16.0,30.28,SE,128,8.0,14.0,41,0.00,,,0.00,Wunderground v.1.13,2013-04-03 17:08:00,
2013-04-03 12:11:00,37.4,14.7,30.28,ESE,118,9.0,11.0,39,0.00,,,0.00,Wunderground v.1.13,2013-04-03 17:11:00,
2013-04-03 12:12:00,37.5,14.8,30.28,ESE,116,9.0,11.0,39,0.00,,,0.00,Wunderground v.1.13,2013-04-03 17:12:00,
2013-04-03 12:14:00,37.3,15.7,30.28,ESE,122,10.0,15.0,41,0.00,,,0.00,Wunderground v.1.13,2013-04-03 17:14:00,
2013-04-03 12:15:00,37.0,14.9,30.28,SE,128,11.0,11.0,40,0.00,,,0.00,Wunderground v.1.13,2013-04-03 17:15:00,
2013-04-03 12:17:00,36.9,14.8,30.28,ESE,107,11.0,11.0,40,0.00,,,0.00,Wunderground v.1.13,2013-04-03 17:17:00,
2013-04-03 12:20:00,37.5,15.3,30.28,WSW,238,9.0,9.0,40,0.00,,,0.00,Wunderground v.1.13,2013-04-03 17:20:00,
2013-04-03 12:23:00,38.2,17.1,30.28,SSE,161,8.0,9.0,42,0.00,,,0.00,Wunderground v.1.13,2013-04-03 17:23:00,
2013-04-03 12:24:00,38.3,16.1,30.28,SE,134,7.0,9.0,40,0.00,,,0.00,Wunderground v.1.13,2013-04-03 17:24:00,
2013-04-03 12:25:00,38.4,15.6,30.28,ESE,115,7.0,7.0,39,0.00,,,0.00,Wunderground v.1.13,2013-04-03 17:25:00,
2013-04-03 12:28:00,38.6,15.1,30.27,SSE,148,6.0,7.0,38,0.00,,,0.00,Wunderground v.1.13,2013-04-03 17:28:00,
2013-04-03 12:29:00,38.7,14.6,30.27,SE,133,6.0,7.0,37,0.00,,,0.00,Wunderground v.1.13,2013-04-03 17:29:00,
2013-04-03 12:30:00,39.0,15.5,30.27,SE,136,6.0,6.0,38,0.00,,,0.00,Wunderground v.1.13,2013-04-03 17:30:00,
2013-04-03 12:32:00,39.2,15.1,30.27,South,180,6.0,6.0,37,0.00,,,0.00,Wunderground v.1.13,2013-04-03 17:32:00,
2013-04-03 12:35:00,39.6,15.4,30.27,WSW,252,5.0,5.0,37,0.00,,,0.00,Wunderground v.1.13,2013-04-03 17:35:00,
2013-04-03 12:37:00,39.8,16.2,30.27,ESE,119,5.0,7.0,38,0.00,,,0.00,Wunderground v.1.13,2013-04-03 17:37:00,
2013-04-03 12:38:00,39.7,16.1,30.27,SE,130,5.0,7.0,38,0.00,,,0.00,Wunderground v.1.13,2013-04-03 17:38:00,
2013-04-03 12:41:00,40.0,15.8,30.27,SE,132,4.0,10.0,37,0.00,,,0.00,Wunderground v.1.13,2013-04-03 17:41:00,
2013-04-03 12:42:00,40.0,16.4,30.27,SE,128,5.0,14.0,38,0.00,,,0.00,Wunderground v.1.13,2013-04-03 17:42:00,
2013-04-03 12:43:00,39.8,16.2,30.27,SE,126,5.0,14.0,38,0.00,,,0.00,Wunderground v.1.13,2013-04-03 17:43:00,
2013-04-03 12:45:00,39.1,15.6,30.27,SE,125,6.0,11.0,38,0.00,,,0.00,Wunderground v.1.13,2013-04-03 17:45:00,
2013-04-03 12:47:00,39.1,17.4,30.27,South,176,7.0,11.0,41,0.00,,,0.00,Wunderground v.1.13,2013-04-03 17:47:00,
2013-04-03 12:49:00,39.4,16.5,30.26,ESE,115,6.0,18.0,39,0.00,,,0.00,Wunderground v.1.13,2013-04-03 17:49:00,
2013-04-03 12:52:00,38.7,17.0,30.26,SSE,165,9.0,14.0,41,0.00,,,0.00,Wunderground v.1.13,2013-04-03 17:52:00,
2013-04-03 12:55:00,39.0,16.1,30.26,SE,131,7.0,7.0,39,0.00,,,0.00,Wunderground v.1.13,2013-04-03 17:55:00,
2013-04-03 12:58:00,39.2,15.7,30.26,SW,219,7.0,7.0,38,0.00,,,0.00,Wunderground v.1.13,2013-04-03 17:58:00,
2013-04-03 12:59:00,39.4,16.5,30.26,SSW,192,8.0,10.0,39,0.00,,,0.00,Wunderground v.1.13,2013-04-03 17:59:00,
2013-04-03 13:01:00,39.7,15.5,30.26,SSW,205,6.0,7.0,37,0.00,,,0.00,Wunderground v.1.13,2013-04-03 18:01:00,
2013-04-03 13:03:00,40.0,17.0,30.26,ESE,107,5.0,7.0,39,0.00,,,0.00,Wunderground v.1.13,2013-04-03 18:03:00,
2013-04-03 13:04:00,40.1,15.9,30.26,ESE,119,6.0,7.0,37,0.00,,,0.00,Wunderground v.1.13,2013-04-03 18:04:00,
2013-04-03 13:05:00,39.9,16.3,30.26,SE,128,6.0,6.0,38,0.00,,,0.00,Wunderground v.1.13,2013-04-03 18:05:00,
2013-04-03 13:10:00,40.1,15.9,30.25,SW,227,6.0,6.0,37,0.00,,,0.00,Wunderground v.1.13,2013-04-03 18:10:00,
2013-04-03 13:13:00,40.5,15.6,30.25,SE,134,6.0,6.0,36,0.00,,,0.00,Wunderground v.1.13,2013-04-03 18:13:00,
2013-04-03 13:14:00,40.7,15.8,30.25,ESE,123,6.0,6.0,36,0.00,,,0.00,Wunderground v.1.13,2013-04-03 18:14:00,
2013-04-03 13:17:00,40.0,16.4,30.25,SE,129,7.0,15.0,38,0.00,,,0.00,Wunderground v.1.13,2013-04-03 18:17:00,
2013-04-03 13:18:00,39.9,17.5,30.25,ESE,119,7.0,15.0,40,0.00,,,0.00,Wunderground v.1.13,2013-04-03 18:18:00,
2013-04-03 13:19:00,39.8,16.2,30.25,ESE,120,8.0,15.0,38,0.00,,,0.00,Wunderground v.1.13,2013-04-03 18:19:00,
2013-04-03 13:23:00,39.1,15.6,30.25,SE,134,11.0,19.0,38,0.00,,,0.00,Wunderground v.1.13,2013-04-03 18:23:00,
2013-04-03 13:25:00,39.2,16.9,30.25,ESE,119,11.0,11.0,40,0.00,,,0.00,Wunderground v.1.13,2013-04-03 18:25:00,
2013-04-03 13:27:00,39.5,17.1,30.25,ESE,117,10.0,11.0,40,0.00,,,0.00,Wunderground v.1.13,2013-04-03 18:27:00,
2013-04-03 13:28:00,39.5,16.6,30.24,ESE,103,10.0,11.0,39,0.00,,,0.00,Wunderground v.1.13,2013-04-03 18:28:00,
2013-04-03 13:32:00,39.9,18.1,30.24,SE,128,8.0,10.0,41,0.00,,,0.00,Wunderground v.1.13,2013-04-03 18:32:00,
2013-04-03 13:33:00,40.1,17.7,30.24,ESE,119,8.0,10.0,40,0.00,,,0.00,Wunderground v.1.13,2013-04-03 18:33:00,
2013-04-03 13:37:00,41.1,17.4,30.24,SE,125,6.0,8.0,38,0.00,,,0.00,Wunderground v.1.13,2013-04-03 18:37:00,
2013-04-03 13:38:00,41.3,16.9,30.24,SE,142,6.0,8.0,37,0.00,,,0.00,Wunderground v.1.13,2013-04-03 18:38:00,
2013-04-03 13:40:00,41.6,17.2,30.23,SSE,149,5.0,9.0,37,0.00,,,0.00,Wunderground v.1.13,2013-04-03 18:40:00,
2013-04-03 13:43:00,41.8,17.4,30.23,SE,129,5.0,9.0,37,0.00,,,0.00,Wunderground v.1.13,2013-04-03 18:43:00,
2013-04-03 13:45:00,41.8,17.4,30.23,SE,125,5.0,5.0,37,0.00,,,0.00,Wunderground v.1.13,2013-04-03 18:45:00,
2013-04-03 13:46:00,41.9,16.9,30.23,SE,145,5.0,5.0,36,0.00,,,0.00,Wunderground v.1.13,2013-04-03 18:46:00,
2013-04-03 13:48:00,41.7,16.7,30.23,SE,126,5.0,9.0,36,0.00,,,0.00,Wunderground v.1.13,2013-04-03 18:48:00,
2013-04-03 13:51:00,40.9,17.8,30.23,ESE,118,6.0,7.0,39,0.00,,,0.00,Wunderground v.1.13,2013-04-03 18:51:00,
2013-04-03 13:52:00,41.0,17.3,30.23,ESE,115,6.0,7.0,38,0.00,,,0.00,Wunderground v.1.13,2013-04-03 18:52:00,
2013-04-03 13:54:00,41.1,16.1,30.23,SE,132,6.0,12.0,36,0.00,,,0.00,Wunderground v.1.13,2013-04-03 18:54:00,
2013-04-03 13:59:00,41.1,17.4,30.23,SE,135,7.0,8.0,38,0.00,,,0.00,Wunderground v.1.13,2013-04-03 18:59:00,
2013-04-03 14:00:00,41.1,16.8,30.23,SE,132,7.0,9.0,37,0.00,,,0.00,Wunderground v.1.13,2013-04-03 19:00:00,
2013-04-03 14:01:00,41.1,17.4,30.23,SSE,168,7.0,9.0,38,0.00,,,0.00,Wunderground v.1.13,2013-04-03 19:01:00,
2013-04-03 14:04:00,41.1,17.4,30.23,SE,126,7.0,12.0,38,0.00,,,0.00,Wunderground v.1.13,2013-04-03 19:04:00,
2013-04-03 14:06:00,40.5,16.9,30.23,ESE,113,8.0,20.0,38,0.00,,,0.00,Wunderground v.1.13,2013-04-03 19:06:00,
2013-04-03 14:07:00,40.4,18.5,30.23,ESE,121,9.0,20.0,41,0.00,,,0.00,Wunderground v.1.13,2013-04-03 19:07:00,
2013-04-03 14:12:00,40.5,16.9,30.23,SE,125,12.0,21.0,38,0.00,,,0.00,Wunderground v.1.13,2013-04-03 19:12:00,
2013-04-03 14:13:00,40.5,18.0,30.23,SE,128,12.0,21.0,40,0.00,,,0.00,Wunderground v.1.13,2013-04-03 19:13:00,
2013-04-03 14:14:00,40.4,17.4,30.23,ESE,119,13.0,21.0,39,0.00,,,0.00,Wunderground v.1.13,2013-04-03 19:14:00,
2013-04-03 14:15:00,40.3,17.9,30.23,SE,126,13.0,13.0,40,0.00,,,0.00,Wunderground v.1.13,2013-04-03 19:15:00,
2013-04-03 14:20:00,41.0,17.9,30.22,ESE,119,9.0,20.0,39,0.00,,,0.00,Wunderground v.1.13,2013-04-03 19:20:00,
2013-04-03 14:22:00,40.6,19.3,30.22,SE,131,10.0,20.0,42,0.00,,,0.00,Wunderground v.1.13,2013-04-03 19:22:00,
2013-04-03 14:23:00,40.8,18.9,30.22,SSE,152,10.0,20.0,41,0.00,,,0.00,Wunderground v.1.13,2013-04-03 19:23:00,
2013-04-03 14:26:00,41.1,19.2,30.22,ESE,123,9.0,9.0,41,0.00,,,0.00,Wunderground v.1.13,2013-04-03 19:26:00,
2013-04-03 14:29:00,41.3,19.9,30.22,WSW,242,11.0,23.0,42,0.00,,,0.00,Wunderground v.1.13,2013-04-03 19:29:00,
2013-04-03 14:32:00,41.5,20.6,30.21,ESE,115,9.0,11.0,43,0.00,,,0.00,Wunderground v.1.13,2013-04-03 19:32:00,
2013-04-03 14:34:00,41.3,19.3,30.21,SE,134,9.0,22.0,41,0.00,,,0.00,Wunderground v.1.13,2013-04-03 19:34:00,
2013-04-03 14:37:00,41.2,19.8,30.21,SE,137,10.0,14.0,42,0.00,,,0.00,Wunderground v.1.13,2013-04-03 19:37:00,
2013-04-03 14:38:00,41.2,19.8,30.21,SE,132,9.0,14.0,42,0.00,,,0.00,Wunderground v.1.13,2013-04-03 19:38:00,
2013-04-03 14:39:00,41.3,19.3,30.21,ESE,123,9.0,14.0,41,0.00,,,0.00,Wunderground v.1.13,2013-04-03 19:39:00,
2013-04-03 14:42:00,41.5,20.1,30.21,SE,131,9.0,11.0,42,0.00,,,0.00,Wunderground v.1.13,2013-04-03 19:42:00,
2013-04-03 14:44:00,41.6,20.2,30.21,ESE,105,9.0,13.0,42,0.00,,,0.00,Wunderground v.1.13,2013-04-03 19:44:00,
2013-04-03 14:50:00,41.3,19.9,30.21,SSE,165,9.0,10.0,42,0.00,,,0.00,Wunderground v.1.13,2013-04-03 19:50:00,
2013-04-03 14:51:00,41.3,19.3,30.21,East,98,9.0,10.0,41,0.00,,,0.00,Wunderground v.1.13,2013-04-03 19:51:00,
2013-04-03 14:53:00,41.5,22.7,30.21,SSE,168,10.0,14.0,47,0.00,,,0.00,Wunderground v.1.13,2013-04-03 19:53:00,
2013-04-03 14:56:00,41.9,21.0,30.20,SW,228,9.0,9.0,43,0.00,,,0.00,Wunderground v.1.13,2013-04-03 19:56:00,
2013-04-03 14:57:00,42.0,20.0,30.20,ESE,110,9.0,9.0,41,0.00,,,0.00,Wunderground v.1.13,2013-04-03 19:57:00,
2013-04-03 15:00:00,42.3,20.2,30.20,SSE,164,8.0,8.0,41,0.00,,,0.00,Wunderground v.1.13,2013-04-03 20:00:00,
2013-04-03 15:03:00,42.9,20.2,30.20,SE,130,7.0,11.0,40,0.00,,,0.00,Wunderground v.1.13,2013-04-03 20:03:00,
2013-04-03 15:05:00,43.0,20.3,30.20,SE,133,7.0,16.0,40,0.00,,,0.00,Wunderground v.1.13,2013-04-03 20:05:00,
2013-04-03 15:08:00,42.3,20.2,30.19,ESE,121,8.0,16.0,41,0.00,,,0.00,Wunderground v.1.13,2013-04-03 20:08:00,
2013-04-03 15:10:00,41.7,20.8,30.20,SE,140,9.0,11.0,43,0.00,,,0.00,Wunderground v.1.13,2013-04-03 20:10:00,
2013-04-03 15:11:00,41.6,19.6,30.20,East,84,10.0,11.0,41,0.00,,,0.00,Wunderground v.1.13,2013-04-03 20:11:00,
2013-04-03 15:13:00,41.9,20.4,30.20,SSE,153,10.0,11.0,42,0.00,,,0.00,Wunderground v.1.13,2013-04-03 20:13:00,
2013-04-03 15:18:00,42.4,20.9,30.19,ESE,121,9.0,10.0,42,0.00,,,0.00,Wunderground v.1.13,2013-04-03 20:18:00,
2013-04-03 15:19:00,42.3,21.4,30.19,SE,130,9.0,11.0,43,0.00,,,0.00,Wunderground v.1.13,2013-04-03 20:19:00,
2013-04-03 15:21:00,42.1,21.7,30.19,SE,126,8.0,9.0,44,0.00,,,0.00,Wunderground v.1.13,2013-04-03 20:21:00,
2013-04-03 15:22:00,42.1,21.2,30.19,ESE,115,7.0,14.0,43,0.00,,,0.00,Wunderground v.1.13,2013-04-03 20:22:00,
2013-04-03 15:24:00,42.2,21.3,30.19,SE,134,8.0,14.0,43,0.00,,,0.00,Wunderground v.1.13,2013-04-03 20:24:00,
2013-04-03 15:25:00,42.3,21.4,30.19,SSW,201,8.0,8.0,43,0.00,,,0.00,Wunderground v.1.13,2013-04-03 20:25:00,
2013-04-03 15:29:00,42.2,21.3,30.18,ESE,120,8.0,24.0,43,0.00,,,0.00,Wunderground v.1.13,2013-04-03 20:29:00,
2013-04-03 15:30:00,42.0,21.1,30.19,South,180,9.0,9.0,43,0.00,,,0.00,Wunderground v.1.13,2013-04-03 20:30:00,
2013-04-03 15:31:00,42.0,21.1,30.19,SE,136,9.0,9.0,43,0.00,,,0.00,Wunderground v.1.13,2013-04-03 20:31:00,
2013-04-03 15:36:00,42.4,21.5,30.18,NE,49,9.0,9.0,43,0.00,,,0.00,Wunderground v.1.13,2013-04-03 20:36:00,
2013-04-03 15:37:00,42.6,21.6,30.18,ESE,121,9.0,19.0,43,0.00,,,0.00,Wunderground v.1.13,2013-04-03 20:37:00,
2013-04-03 15:41:00,42.4,21.5,30.18,SE,126,8.0,12.0,43,0.00,,,0.00,Wunderground v.1.13,2013-04-03 20:41:00,
2013-04-03 15:42:00,42.4,22.0,30.18,SSW,213,8.0,12.0,44,0.00,,,0.00,Wunderground v.1.13,2013-04-03 20:42:00,
2013-04-03 15:43:00,42.4,21.5,30.18,SE,125,9.0,12.0,43,0.00,,,0.00,Wunderground v.1.13,2013-04-03 20:43:00,
2013-04-03 15:44:00,42.4,22.5,30.18,SE,128,9.0,12.0,45,0.00,,,0.00,Wunderground v.1.13,2013-04-03 20:44:00,
2013-04-03 15:47:00,42.4,21.5,30.18,ESE,123,8.0,13.0,43,0.00,,,0.00,Wunderground v.1.13,2013-04-03 20:47:00,
2013-04-03 15:49:00,42.4,22.5,30.17,SE,128,8.0,14.0,45,0.00,,,0.00,Wunderground v.1.13,2013-04-03 20:49:00,
2013-04-03 15:51:00,42.1,22.3,30.17,SSE,157,8.0,11.0,45,0.00,,,0.00,Wunderground v.1.13,2013-04-03 20:51:00,
2013-04-03 15:55:00,42.4,22.5,30.17,SE,130,8.0,16.0,45,0.00,,,0.00,Wunderground v.1.13,2013-04-03 20:55:00,
2013-04-03 15:56:00,42.2,22.4,30.17,ESE,117,9.0,16.0,45,0.00,,,0.00,Wunderground v.1.13,2013-04-03 20:56:00,
2013-04-03 15:57:00,42.2,22.4,30.17,ESE,113,9.0,16.0,45,0.00,,,0.00,Wunderground v.1.13,2013-04-03 20:57:00,
2013-04-03 16:00:00,42.4,22.5,30.16,SSE,150,8.0,8.0,45,0.00,,,0.00,Wunderground v.1.13,2013-04-03 21:00:00,
2013-04-03 16:01:00,42.6,22.7,30.16,SE,137,8.0,8.0,45,0.00,,,0.00,Wunderground v.1.13,2013-04-03 21:01:00,
2013-04-03 16:03:00,43.0,23.1,30.17,SW,215,7.0,8.0,45,0.00,,,0.00,Wunderground v.1.13,2013-04-03 21:03:00,
2013-04-03 16:07:00,44.0,22.9,30.16,SSW,203,6.0,8.0,43,0.00,,,0.00,Wunderground v.1.13,2013-04-03 21:07:00,
2013-04-03 16:09:00,44.2,22.5,30.16,SSE,154,6.0,9.0,42,0.00,,,0.00,Wunderground v.1.13,2013-04-03 21:09:00,
2013-04-03 16:10:00,44.3,22.6,30.16,South,178,6.0,6.0,42,0.00,,,0.00,Wunderground v.1.13,2013-04-03 21:10:00,
2013-04-03 16:13:00,44.7,23.0,30.16,SE,140,6.0,6.0,42,0.00,,,0.00,Wunderground v.1.13,2013-04-03 21:13:00,
2013-04-03 16:14:00,44.8,23.6,30.16,SE,138,6.0,6.0,43,0.00,,,0.00,Wunderground v.1.13,2013-04-03 21:14:00,
2013-04-03 16:15:00,44.8,23.1,30.16,ESE,121,5.0,5.0,42,0.00,,,0.00,Wunderground v.1.13,2013-04-03 21:15:00,
2013-04-03 16:17:00,45.0,22.7,30.16,SSW,211,5.0,7.0,41,0.00,,,0.00,Wunderground v.1.13,2013-04-03 21:17:00,
2013-04-03 16:21:00,44.9,22.6,30.15,ESE,117,5.0,6.0,41,0.00,,,0.00,Wunderground v.1.13,2013-04-03 21:21:00,
2013-04-03 16:22:00,44.8,23.1,30.16,SSW,201,6.0,8.0,42,0.00,,,0.00,Wunderground v.1.13,2013-04-03 21:22:00,
2013-04-03 16:27:00,44.2,23.1,30.15,SSW,196,7.0,7.0,43,0.00,,,0.00,Wunderground v.1.13,2013-04-03 21:27:00,
2013-04-03 16:29:00,44.6,23.5,30.16,South,175,6.0,24.0,43,0.00,,,0.00,Wunderground v.1.13,2013-04-03 21:29:00,
2013-04-03 16:33:00,45.4,23.6,30.16,SSW,212,5.0,11.0,42,0.00,,,0.00,Wunderground v.1.13,2013-04-03 21:33:00,
2013-04-03 16:34:00,45.4,23.6,30.15,WSW,250,5.0,11.0,42,0.00,,,0.00,Wunderground v.1.13,2013-04-03 21:34:00,
2013-04-03 16:35:00,45.4,23.6,30.15,SE,140,5.0,10.0,42,0.00,,,0.00,Wunderground v.1.13,2013-04-03 21:35:00,
2013-04-03 16:39:00,44.5,23.9,30.15,SW,227,6.0,12.0,44,0.00,,,0.00,Wunderground v.1.13,2013-04-03 21:39:00,
2013-04-03 16:41:00,44.5,24.5,30.15,WNW,293,6.0,6.0,45,0.00,,,0.00,Wunderground v.1.13,2013-04-03 21:41:00,
2013-04-03 16:44:00,44.9,23.7,30.15,South,172,7.0,8.0,43,0.00,,,0.00,Wunderground v.1.13,2013-04-03 21:44:00,
2013-04-03 16:45:00,45.1,23.9,30.15,SSW,209,6.0,6.0,43,0.00,,,0.00,Wunderground v.1.13,2013-04-03 21:45:00,
2013-04-03 16:47:00,45.3,23.5,30.15,ESE,113,6.0,7.0,42,0.00,,,0.00,Wunderground v.1.13,2013-04-03 21:47:00,
2013-04-03 16:51:00,44.9,23.2,30.15,SSE,164,6.0,7.0,42,0.00,,,0.00,Wunderground v.1.13,2013-04-03 21:51:00,
2013-04-03 16:53:00,44.8,23.6,30.15,SSE,158,6.0,7.0,43,0.00,,,0.00,Wunderground v.1.13,2013-04-03 21:53:00,
2013-04-03 16:55:00,44.7,23.5,30.15,SE,140,6.0,13.0,43,0.00,,,0.00,Wunderground v.1.13,2013-04-03 21:55:00,
2013-04-03 16:58:00,44.5,23.9,30.15,SSE,159,6.0,13.0,44,0.00,,,0.00,Wunderground v.1.13,2013-04-03 21:58:00,
2013-04-03 17:01:00,44.6,24.0,30.15,South,171,6.0,10.0,44,0.00,,,0.00,Wunderground v.1.13,2013-04-03 22:01:00,
2013-04-03 17:03:00,44.5,24.5,30.15,SE,126,7.0,10.0,45,0.00,,,0.00,Wunderground v.1.13,2013-04-03 22:03:00,
2013-04-03 17:07:00,44.0,24.5,30.15,SE,126,7.0,7.0,46,0.00,,,0.00,Wunderground v.1.13,2013-04-03 22:07:00,
2013-04-03 17:08:00,43.9,24.4,30.15,SSE,164,7.0,7.0,46,0.00,,,0.00,Wunderground v.1.13,2013-04-03 22:08:00,
2013-04-03 17:09:00,43.9,24.4,30.15,SSW,194,7.0,7.0,46,0.00,,,0.00,Wunderground v.1.13,2013-04-03 22:09:00,
2013-04-03 17:11:00,43.8,24.3,30.15,SSW,210,7.0,9.0,46,0.00,,,0.00,Wunderground v.1.13,2013-04-03 22:11:00,
2013-04-03 17:15:00,43.9,24.9,30.15,SSW,194,6.0,6.0,47,0.00,,,0.00,Wunderground v.1.13,2013-04-03 22:15:00,
2013-04-03 17:16:00,43.9,24.9,30.15,South,183,6.0,6.0,47,0.00,,,0.00,Wunderground v.1.13,2013-04-03 22:16:00,
2013-04-03 17:17:00,43.9,24.9,30.15,WSW,237,6.0,6.0,47,0.00,,,0.00,Wunderground v.1.13,2013-04-03 22:17:00,
2013-04-03 17:19:00,43.8,24.9,30.15,South,178,6.0,9.0,47,0.00,,,0.00,Wunderground v.1.13,2013-04-03 22:19:00,
2013-04-03 17:24:00,43.8,25.4,30.14,SSW,194,6.0,6.0,48,0.00,,,0.00,Wunderground v.1.13,2013-04-03 22:24:00,
2013-04-03 17:25:00,43.7,25.3,30.14,South,169,6.0,6.0,48,0.00,,,0.00,Wunderground v.1.13,2013-04-03 22:25:00,
2013-04-03 17:28:00,43.6,25.2,30.14,WSW,249,6.0,7.0,48,0.00,,,0.00,Wunderground v.1.13,2013-04-03 22:28:00,
2013-04-03 17:29:00,43.7,25.3,30.15,WSW,242,6.0,7.0,48,0.00,,,0.00,Wunderground v.1.13,2013-04-03 22:29:00,
2013-04-03 17:31:00,43.8,25.4,30.14,South,187,6.0,6.0,48,0.00,,,0.00,Wunderground v.1.13,2013-04-03 22:31:00,
2013-04-03 17:33:00,44.2,25.7,30.14,SSE,165,6.0,8.0,48,0.00,,,0.00,Wunderground v.1.13,2013-04-03 22:33:00,
2013-04-03 17:34:00,44.3,25.8,30.14,SE,131,5.0,8.0,48,0.00,,,0.00,Wunderground v.1.13,2013-04-03 22:34:00,
2013-04-03 17:38:00,44.3,25.8,30.14,SSE,156,6.0,10.0,48,0.00,,,0.00,Wunderground v.1.13,2013-04-03 22:38:00,
2013-04-03 17:39:00,44.3,25.8,30.14,SE,126,6.0,10.0,48,0.00,,,0.00,Wunderground v.1.13,2013-04-03 22:39:00,
2013-04-03 17:40:00,44.3,25.8,30.14,South,175,6.0,10.0,48,0.00,,,0.00,Wunderground v.1.13,2013-04-03 22:40:00,
2013-04-03 17:41:00,44.3,25.8,30.14,SSW,200,6.0,6.0,48,0.00,,,0.00,Wunderground v.1.13,2013-04-03 22:41:00,
2013-04-03 17:44:00,44.4,25.9,30.14,ESE,114,6.0,9.0,48,0.00,,,0.00,Wunderground v.1.13,2013-04-03 22:44:00,
2013-04-03 17:45:00,44.4,25.9,30.14,SSE,153,6.0,9.0,48,0.00,,,0.00,Wunderground v.1.13,2013-04-03 22:45:00,
2013-04-03 17:46:00,44.3,25.8,30.14,SE,128,6.0,10.0,48,0.00,,,0.00,Wunderground v.1.13,2013-04-03 22:46:00,
2013-04-03 17:47:00,44.2,25.7,30.14,SSW,193,6.0,10.0,48,0.00,,,0.00,Wunderground v.1.13,2013-04-03 22:47:00,
2013-04-03 17:51:00,44.2,26.2,30.14,SW,231,6.0,6.0,49,0.00,,,0.00,Wunderground v.1.13,2013-04-03 22:51:00,
2013-04-03 17:55:00,44.3,26.3,30.13,ESE,110,5.0,7.0,49,0.00,,,0.00,Wunderground v.1.13,2013-04-03 22:55:00,
2013-04-03 17:56:00,44.2,26.2,30.13,South,190,6.0,6.0,49,0.00,,,0.00,Wunderground v.1.13,2013-04-03 22:56:00,
2013-04-03 17:58:00,44.1,26.1,30.13,SE,145,5.0,7.0,49,0.00,,,0.00,Wunderground v.1.13,2013-04-03 22:58:00,
2013-04-03 18:00:00,43.9,26.0,30.13,ESE,102,6.0,6.0,49,0.00,,,0.00,Wunderground v.1.13,2013-04-03 23:00:00,
2013-04-03 18:01:00,43.8,26.3,30.13,West,259,6.0,6.0,50,0.00,,,0.00,Wunderground v.1.13,2013-04-03 23:01:00,
2013-04-03 18:05:00,43.8,26.3,30.13,SSW,200,6.0,6.0,50,0.00,,,0.00,Wunderground v.1.13,2013-04-03 23:05:00,
2013-04-03 18:07:00,43.9,26.4,30.13,WSW,239,6.0,6.0,50,0.00,,,0.00,Wunderground v.1.13,2013-04-03 23:07:00,
2013-04-03 18:09:00,43.9,26.4,30.13,SE,130,5.0,6.0,50,0.00,,,0.00,Wunderground v.1.13,2013-04-03 23:09:00,
2013-04-03 18:15:00,43.9,26.4,30.13,SSW,196,5.0,5.0,50,0.00,,,0.00,Wunderground v.1.13,2013-04-03 23:15:00,
2013-04-03 18:16:00,43.9,26.9,30.13,South,190,5.0,5.0,51,0.00,,,0.00,Wunderground v.1.13,2013-04-03 23:16:00,
2013-04-03 18:19:00,44.0,27.0,30.12,SSE,149,5.0,6.0,51,0.00,,,0.00,Wunderground v.1.13,2013-04-03 23:19:00,
2013-04-03 18:21:00,44.0,27.0,30.13,SE,138,5.0,5.0,51,0.00,,,0.00,Wunderground v.1.13,2013-04-03 23:21:00,
2013-04-03 18:22:00,43.9,26.9,30.12,SSW,200,5.0,5.0,51,0.00,,,0.00,Wunderground v.1.13,2013-04-03 23:22:00,
2013-04-03 18:25:00,43.9,26.9,30.12,SE,129,4.0,5.0,51,0.00,,,0.00,Wunderground v.1.13,2013-04-03 23:25:00,
2013-04-03 18:27:00,43.8,26.8,30.12,SE,126,5.0,5.0,51,0.00,,,0.00,Wunderground v.1.13,2013-04-03 23:27:00,
2013-04-03 18:31:00,43.9,27.4,30.12,SSE,149,5.0,5.0,52,0.00,,,0.00,Wunderground v.1.13,2013-04-03 23:31:00,
2013-04-03 18:32:00,43.9,27.4,30.12,South,172,4.0,8.0,52,0.00,,,0.00,Wunderground v.1.13,2013-04-03 23:32:00,
2013-04-03 18:33:00,43.8,27.3,30.11,SE,144,4.0,8.0,52,0.00,,,0.00,Wunderground v.1.13,2013-04-03 23:33:00,
2013-04-03 18:35:00,43.7,27.2,30.11,SE,144,5.0,7.0,52,0.00,,,0.00,Wunderground v.1.13,2013-04-03 23:35:00,
2013-04-03 18:36:00,43.7,27.2,30.11,SE,146,5.0,7.0,52,0.00,,,0.00,Wunderground v.1.13,2013-04-03 23:36:00,
2013-04-03 18:40:00,43.5,27.5,30.11,SSW,206,5.0,8.0,53,0.00,,,0.00,Wunderground v.1.13,2013-04-03 23:40:00,
2013-04-03 18:42:00,43.6,27.6,30.11,SW,232,5.0,8.0,53,0.00,,,0.00,Wunderground v.1.13,2013-04-03 23:42:00,
2013-04-03 18:47:00,43.6,27.6,30.11,ESE,111,4.0,7.0,53,0.00,,,0.00,Wunderground v.1.13,2013-04-03 23:47:00,
2013-04-03 18:48:00,43.6,27.6,30.11,SE,142,4.0,7.0,53,0.00,,,0.00,Wunderground v.1.13,2013-04-03 23:48:00,
2013-04-03 18:49:00,43.6,27.6,30.11,SSW,196,3.0,7.0,53,0.00,,,0.00,Wunderground v.1.13,2013-04-03 23:49:00,
2013-04-03 18:50:00,43.6,27.6,30.11,SSE,164,3.0,3.0,53,0.00,,,0.00,Wunderground v.1.13,2013-04-03 23:50:00,
2013-04-03 18:53:00,43.3,28.2,30.11,SSE,163,4.0,7.0,55,0.00,,,0.00,Wunderground v.1.13,2013-04-03 23:53:00,
2013-04-03 18:55:00,43.2,28.1,30.11,SSW,210,4.0,6.0,55,0.00,,,0.00,Wunderground v.1.13,2013-04-03 23:55:00,
2013-04-03 18:58:00,43.1,28.0,30.11,ESE,121,4.0,8.0,55,0.00,,,0.00,Wunderground v.1.13,2013-04-03 23:58:00,
2013-04-03 19:00:00,43.0,28.4,30.11,South,182,5.0,5.0,56,0.00,,,0.00,Wunderground v.1.13,2013-04-04 00:00:00,
2013-04-03 19:03:00,42.9,28.3,30.09,SE,137,5.0,7.0,56,0.00,,,0.00,Wunderground v.1.13,2013-04-04 00:03:00,
2013-04-03 19:07:00,42.9,28.3,30.09,SE,135,5.0,5.0,56,0.00,,,0.00,Wunderground v.1.13,2013-04-04 00:07:00,
2013-04-03 19:08:00,42.9,28.3,30.09,SE,141,5.0,6.0,56,0.00,,,0.00,Wunderground v.1.13,2013-04-04 00:08:00,
2013-04-03 19:10:00,42.9,28.3,30.09,South,172,4.0,4.0,56,0.00,,,0.00,Wunderground v.1.13,2013-04-04 00:10:00,
2013-04-03 19:14:00,42.8,28.6,30.09,ESE,118,3.0,4.0,57,0.00,,,0.00,Wunderground v.1.13,2013-04-04 00:14:00,
2013-04-03 19:15:00,42.7,28.5,30.09,SE,135,2.0,2.0,57,0.00,,,0.00,Wunderground v.1.13,2013-04-04 00:15:00,
2013-04-03 19:16:00,42.7,28.5,30.09,SW,230,3.0,3.0,57,0.00,,,0.00,Wunderground v.1.13,2013-04-04 00:16:00,
2013-04-03 19:18:00,42.6,28.4,30.09,ESE,121,3.0,3.0,57,0.00,,,0.00,Wunderground v.1.13,2013-04-04 00:18:00,
2013-04-03 19:22:00,42.6,28.8,30.08,SSE,149,3.0,3.0,58,0.00,,,0.00,Wunderground v.1.13,2013-04-04 00:22:00,
2013-04-03 19:23:00,42.6,28.8,30.08,SSE,148,3.0,5.0,58,0.00,,,0.00,Wunderground v.1.13,2013-04-04 00:23:00,
2013-04-03 19:26:00,42.4,28.7,30.08,SW,227,3.0,7.0,58,0.00,,,0.00,Wunderground v.1.13,2013-04-04 00:26:00,
2013-04-03 19:27:00,42.4,28.7,30.08,SW,221,4.0,7.0,58,0.00,,,0.00,Wunderground v.1.13,2013-04-04 00:27:00,
2013-04-03 19:28:00,42.4,28.7,30.08,SSW,194,3.0,7.0,58,0.00,,,0.00,Wunderground v.1.13,2013-04-04 00:28:00,
2013-04-03 19:30:00,42.4,29.1,30.08,SE,137,4.0,4.0,59,0.00,,,0.00,Wunderground v.1.13,2013-04-04 00:30:00,
2013-04-03 19:33:00,42.4,29.1,30.08,WSW,244,4.0,7.0,59,0.00,,,0.00,Wunderground v.1.13,2013-04-04 00:33:00,
2013-04-03 19:36:00,42.4,29.1,30.08,WSW,240,4.0,6.0,59,0.00,,,0.00,Wunderground v.1.13,2013-04-04 00:36:00,
2013-04-03 19:40:00,42.3,29.0,30.07,SE,138,4.0,4.0,59,0.00,,,0.00,Wunderground v.1.13,2013-04-04 00:40:00,
2013-04-03 19:41:00,42.3,29.0,30.08,ESE,114,4.0,5.0,59,0.00,,,0.00,Wunderground v.1.13,2013-04-04 00:41:00,
2013-04-03 19:44:00,42.2,29.3,30.07,SSE,150,4.0,5.0,60,0.00,,,0.00,Wunderground v.1.13,2013-04-04 00:44:00,
2013-04-03 19:46:00,42.2,29.3,30.07,South,184,4.0,4.0,60,0.00,,,0.00,Wunderground v.1.13,2013-04-04 00:46:00,
2013-04-03 19:47:00,42.2,29.3,30.07,South,180,4.0,4.0,60,0.00,,,0.00,Wunderground v.1.13,2013-04-04 00:47:00,
2013-04-03 19:51:00,42.0,29.1,30.07,SE,142,4.0,6.0,60,0.00,,,0.00,Wunderground v.1.13,2013-04-04 00:51:00,
2013-04-03 19:53:00,42.0,29.1,30.07,SSE,159,4.0,6.0,60,0.00,,,0.00,Wunderground v.1.13,2013-04-04 00:53:00,
2013-04-03 19:57:00,41.8,29.3,30.06,SE,145,4.0,4.0,61,0.00,,,0.00,Wunderground v.1.13,2013-04-04 00:57:00,
2013-04-03 19:59:00,41.7,29.2,30.06,South,180,3.0,5.0,61,0.00,,,0.00,Wunderground v.1.13,2013-04-04 00:59:00,
2013-04-03 20:00:00,41.7,29.2,30.06,South,180,3.0,6.0,61,0.00,,,0.00,Wunderground v.1.13,2013-04-04 01:00:00,
2013-04-03 20:03:00,41.5,29.4,30.05,ESE,122,3.0,6.0,62,0.00,,,0.00,Wunderground v.1.13,2013-04-04 01:03:00,
2013-04-03 20:05:00,41.4,29.3,30.05,SE,130,3.0,3.0,62,0.00,,,0.00,Wunderground v.1.13,2013-04-04 01:05:00,
2013-04-03 20:07:00,41.3,29.3,30.05,SE,126,3.0,6.0,62,0.00,,,0.00,Wunderground v.1.13,2013-04-04 01:07:00,
2013-04-03 20:10:00,41.1,29.5,30.05,SE,143,3.0,3.0,63,0.00,,,0.00,Wunderground v.1.13,2013-04-04 01:10:00,
2013-04-03 20:11:00,41.0,29.4,30.05,SE,140,3.0,3.0,63,0.00,,,0.00,Wunderground v.1.13,2013-04-04 01:11:00,
2013-04-03 20:16:00,40.9,29.3,30.05,SSW,213,3.0,8.0,63,0.00,,,0.00,Wunderground v.1.13,2013-04-04 01:16:00,
2013-04-03 20:17:00,40.9,29.7,30.05,SSE,157,3.0,8.0,64,0.00,,,0.00,Wunderground v.1.13,2013-04-04 01:17:00,
2013-04-03 20:18:00,40.8,29.6,30.05,SSE,154,3.0,8.0,64,0.00,,,0.00,Wunderground v.1.13,2013-04-04 01:18:00,
2013-04-03 20:22:00,40.8,29.6,30.05,SE,130,2.0,10.0,64,0.00,,,0.00,Wunderground v.1.13,2013-04-04 01:22:00,
2013-04-03 20:23:00,40.8,29.6,30.05,East,101,2.0,10.0,64,0.00,,,0.00,Wunderground v.1.13,2013-04-04 01:23:00,
2013-04-03 20:28:00,40.7,29.5,30.04,SE,135,3.0,5.0,64,0.00,,,0.00,Wunderground v.1.13,2013-04-04 01:28:00,
2013-04-03 20:29:00,40.6,29.4,30.04,SE,132,3.0,5.0,64,0.00,,,0.00,Wunderground v.1.13,2013-04-04 01:29:00,
2013-04-03 20:30:00,40.7,29.8,30.04,SSW,210,4.0,6.0,65,0.00,,,0.00,Wunderground v.1.13,2013-04-04 01:30:00,
2013-04-03 20:34:00,40.7,29.8,30.04,ESE,119,4.0,6.0,65,0.00,,,0.00,Wunderground v.1.13,2013-04-04 01:34:00,
2013-04-03 20:35:00,40.7,29.8,30.04,ESE,110,4.0,11.0,65,0.00,,,0.00,Wunderground v.1.13,2013-04-04 01:35:00,
2013-04-03 20:39:00,40.7,29.8,30.04,WSW,246,4.0,11.0,65,0.00,,,0.00,Wunderground v.1.13,2013-04-04 01:39:00,
2013-04-03 20:41:00,40.7,29.8,30.04,WSW,241,4.0,4.0,65,0.00,,,0.00,Wunderground v.1.13,2013-04-04 01:41:00,
2013-04-03 20:42:00,40.7,29.8,30.04,SE,140,3.0,4.0,65,0.00,,,0.00,Wunderground v.1.13,2013-04-04 01:42:00,
2013-04-03 20:43:00,40.7,29.8,30.04,ESE,110,3.0,7.0,65,0.00,,,0.00,Wunderground v.1.13,2013-04-04 01:43:00,
2013-04-03 20:46:00,40.8,29.9,30.04,ESE,117,3.0,8.0,65,0.00,,,0.00,Wunderground v.1.13,2013-04-04 01:46:00,
2013-04-03 20:47:00,40.7,29.8,30.04,SW,227,4.0,8.0,65,0.00,,,0.00,Wunderground v.1.13,2013-04-04 01:47:00,
2013-04-03 20:50:00,40.7,29.8,30.04,SE,146,4.0,4.0,65,0.00,,,0.00,Wunderground v.1.13,2013-04-04 01:50:00,
2013-04-03 20:52:00,40.7,29.8,30.04,SSW,200,4.0,4.0,65,0.00,,,0.00,Wunderground v.1.13,2013-04-04 01:52:00,
2013-04-03 20:53:00,40.7,29.8,30.04,SE,144,4.0,4.0,65,0.00,,,0.00,Wunderground v.1.13,2013-04-04 01:53:00,
2013-04-03 20:55:00,40.6,30.1,30.04,SE,129,4.0,4.0,66,0.00,,,0.00,Wunderground v.1.13,2013-04-04 01:55:00,
2013-04-03 20:57:00,40.7,30.2,30.04,SSE,156,4.0,4.0,66,0.00,,,0.00,Wunderground v.1.13,2013-04-04 01:57:00,
2013-04-03 20:58:00,40.7,30.2,30.04,SSE,157,3.0,4.0,66,0.00,,,0.00,Wunderground v.1.13,2013-04-04 01:58:00,
2013-04-03 21:02:00,40.7,30.2,30.03,SSE,150,3.0,8.0,66,0.00,,,0.00,Wunderground v.1.13,2013-04-04 02:02:00,
2013-04-03 21:03:00,40.6,30.1,30.02,ESE,123,3.0,12.0,66,0.00,,,0.00,Wunderground v.1.13,2013-04-04 02:03:00,
2013-04-03 21:04:00,40.7,30.2,30.03,SE,130,4.0,12.0,66,0.00,,,0.00,Wunderground v.1.13,2013-04-04 02:04:00,
2013-04-03 21:07:00,40.7,30.2,30.02,ESE,111,4.0,5.0,66,0.00,,,0.00,Wunderground v.1.13,2013-04-04 02:07:00,
2013-04-03 21:09:00,40.7,30.2,30.02,South,178,4.0,7.0,66,0.00,,,0.00,Wunderground v.1.13,2013-04-04 02:09:00,
2013-04-03 21:10:00,40.7,30.2,30.02,SW,222,4.0,4.0,66,0.00,,,0.00,Wunderground v.1.13,2013-04-04 02:10:00,
2013-04-03 21:12:00,40.7,30.2,30.02,SE,137,5.0,6.0,66,0.00,,,0.00,Wunderground v.1.13,2013-04-04 02:12:00,
2013-04-03 21:14:00,40.6,30.1,30.02,South,174,5.0,6.0,66,0.00,,,0.00,Wunderground v.1.13,2013-04-04 02:14:00,
2013-04-03 21:16:00,40.6,30.1,30.02,SE,126,4.0,5.0,66,0.00,,,0.00,Wunderground v.1.13,2013-04-04 02:16:00,
2013-04-03 21:18:00,40.6,30.1,30.02,South,172,4.0,7.0,66,0.00,,,0.00,Wunderground v.1.13,2013-04-04 02:18:00,
2013-04-03 21:22:00,40.7,30.2,30.02,SSE,150,4.0,10.0,66,0.00,,,0.00,Wunderground v.1.13,2013-04-04 02:22:00,
2013-04-03 21:23:00,40.7,30.2,30.02,SSE,152,4.0,10.0,66,0.00,,,0.00,Wunderground v.1.13,2013-04-04 02:23:00,
2013-04-03 21:29:00,40.8,30.3,30.02,South,171,4.0,9.0,66,0.00,,,0.00,Wunderground v.1.13,2013-04-04 02:29:00,
2013-04-03 21:30:00,40.9,30.4,30.02,South,173,5.0,5.0,66,0.00,,,0.00,Wunderground v.1.13,2013-04-04 02:30:00,
2013-04-03 21:32:00,40.9,30.4,30.02,South,185,5.0,8.0,66,0.00,,,0.00,Wunderground v.1.13,2013-04-04 02:32:00,
2013-04-03 21:37:00,40.9,30.4,30.01,ESE,114,5.0,11.0,66,0.00,,,0.00,Wunderground v.1.13,2013-04-04 02:37:00,
2013-04-03 21:40:00,40.9,30.4,30.02,SE,126,6.0,6.0,66,0.00,,,0.00,Wunderground v.1.13,2013-04-04 02:40:00,
2013-04-03 21:42:00,40.9,30.4,30.02,SE,138,6.0,6.0,66,0.00,,,0.00,Wunderground v.1.13,2013-04-04 02:42:00,
2013-04-03 21:43:00,40.9,30.4,30.02,SE,125,6.0,6.0,66,0.00,,,0.00,Wunderground v.1.13,2013-04-04 02:43:00,
2013-04-03 21:48:00,40.9,30.4,30.02,WSW,239,5.0,5.0,66,0.00,,,0.00,Wunderground v.1.13,2013-04-04 02:48:00,
2013-04-03 21:50:00,40.9,30.4,30.02,WSW,255,6.0,6.0,66,0.00,,,0.00,Wunderground v.1.13,2013-04-04 02:50:00,
2013-04-03 21:53:00,41.0,30.5,30.01,SSE,154,6.0,13.0,66,0.00,,,0.00,Wunderground v.1.13,2013-04-04 02:53:00,
2013-04-03 21:55:00,41.1,30.6,30.01,South,187,6.0,13.0,66,0.00,,,0.00,Wunderground v.1.13,2013-04-04 02:55:00,
2013-04-03 21:59:00,41.1,30.6,30.01,SE,134,7.0,11.0,66,0.00,,,0.00,Wunderground v.1.13,2013-04-04 02:59:00,
2013-04-03 22:01:00,41.1,30.6,30.01,SW,217,7.0,7.0,66,0.00,,,0.00,Wunderground v.1.13,2013-04-04 03:01:00,
2013-04-03 22:05:00,41.1,30.6,30.00,ENE,68,7.0,7.0,66,0.00,,,0.00,Wunderground v.1.13,2013-04-04 03:05:00,
2013-04-03 22:07:00,41.0,30.5,30.00,South,171,6.0,7.0,66,0.00,,,0.00,Wunderground v.1.13,2013-04-04 03:07:00,
2013-04-03 22:08:00,41.1,30.6,30.00,WSW,245,7.0,7.0,66,0.00,,,0.00,Wunderground v.1.13,2013-04-04 03:08:00,
2013-04-03 22:09:00,41.0,30.5,30.00,SE,126,6.0,7.0,66,0.00,,,0.00,Wunderground v.1.13,2013-04-04 03:09:00,
2013-04-03 22:12:00,41.0,30.5,30.00,South,177,6.0,12.0,66,0.00,,,0.00,Wunderground v.1.13,2013-04-04 03:12:00,
2013-04-03 22:14:00,41.0,30.5,30.00,South,183,6.0,12.0,66,0.00,,,0.00,Wunderground v.1.13,2013-04-04 03:14:00,
2013-04-03 22:16:00,41.0,30.5,30.00,WSW,240,6.0,9.0,66,0.00,,,0.00,Wunderground v.1.13,2013-04-04 03:16:00,
2013-04-03 22:17:00,41.0,30.5,30.00,East,97,6.0,9.0,66,0.00,,,0.00,Wunderground v.1.13,2013-04-04 03:17:00,
2013-04-03 22:22:00,40.9,30.4,30.00,South,184,5.0,8.0,66,0.00,,,0.00,Wunderground v.1.13,2013-04-04 03:22:00,
2013-04-03 22:23:00,41.0,30.5,30.00,SE,132,6.0,11.0,66,0.00,,,0.00,Wunderground v.1.13,2013-04-04 03:23:00,
2013-04-03 22:25:00,41.0,30.5,30.00,SW,226,6.0,6.0,66,0.00,,,0.00,Wunderground v.1.13,2013-04-04 03:25:00,
2013-04-03 22:28:00,41.0,30.5,30.00,SW,219,6.0,6.0,66,0.00,,,0.00,Wunderground v.1.13,2013-04-04 03:28:00,
2013-04-03 22:30:00,41.0,30.5,30.00,West,259,6.0,6.0,66,0.00,,,0.00,Wunderground v.1.13,2013-04-04 03:30:00,
2013-04-03 22:33:00,41.0,30.5,30.00,SSE,164,5.0,6.0,66,0.00,,,0.00,Wunderground v.1.13,2013-04-04 03:33:00,
2013-04-03 22:34:00,41.0,30.5,29.99,South,173,5.0,6.0,66,0.00,,,0.00,Wunderground v.1.13,2013-04-04 03:34:00,
2013-04-03 22:37:00,40.9,30.4,29.99,South,180,5.0,9.0,66,0.00,,,0.00,Wunderground v.1.13,2013-04-04 03:37:00,
2013-04-03 22:39:00,41.0,30.5,29.99,South,176,5.0,9.0,66,0.00,,,0.00,Wunderground v.1.13,2013-04-04 03:39:00,
2013-04-03 22:40:00,41.0,30.5,29.99,SE,146,6.0,12.0,66,0.00,,,0.00,Wunderground v.1.13,2013-04-04 03:40:00,
2013-04-03 22:42:00,41.0,30.5,29.99,SSE,159,6.0,12.0,66,0.00,,,0.00,Wunderground v.1.13,2013-04-04 03:42:00,
2013-04-03 22:43:00,41.0,30.5,29.99,South,190,6.0,12.0,66,0.00,,,0.00,Wunderground v.1.13,2013-04-04 03:43:00,
2013-04-03 22:47:00,41.0,30.5,29.99,SE,130,6.0,10.0,66,0.00,,,0.00,Wunderground v.1.13,2013-04-04 03:47:00,
2013-04-03 22:48:00,41.0,30.5,29.99,SSE,154,6.0,10.0,66,0.00,,,0.00,Wunderground v.1.13,2013-04-04 03:48:00,
2013-04-03 22:50:00,41.0,30.5,29.99,South,184,6.0,7.0,66,0.00,,,0.00,Wunderground v.1.13,2013-04-04 03:50:00,
2013-04-03 22:52:00,41.1,30.2,29.99,ESE,113,6.0,7.0,65,0.00,,,0.00,Wunderground v.1.13,2013-04-04 03:52:00,
2013-04-03 22:53:00,41.1,30.2,29.98,SW,217,6.0,7.0,65,0.00,,,0.00,Wunderground v.1.13,2013-04-04 03:53:00,
2013-04-03 22:56:00,41.1,30.2,29.98,SE,128,5.0,7.0,65,0.00,,,0.00,Wunderground v.1.13,2013-04-04 03:56:00,
2013-04-03 22:59:00,41.0,30.1,29.98,WSW,254,5.0,7.0,65,0.00,,,0.00,Wunderground v.1.13,2013-04-04 03:59:00,
2013-04-03 23:00:00,41.0,30.1,29.98,SW,226,5.0,5.0,65,0.00,,,0.00,Wunderground v.1.13,2013-04-04 04:00:00,
2013-04-03 23:01:00,41.0,30.1,29.98,South,179,5.0,5.0,65,0.00,,,0.00,Wunderground v.1.13,2013-04-04 04:01:00,
2013-04-03 23:02:00,41.0,30.1,29.98,South,173,5.0,5.0,65,0.00,,,0.00,Wunderground v.1.13,2013-04-04 04:02:00,
2013-04-03 23:05:00,41.0,30.1,29.98,SW,218,5.0,5.0,65,0.00,,,0.00,Wunderground v.1.13,2013-04-04 04:05:00,
2013-04-03 23:08:00,41.1,30.2,29.98,SSE,160,5.0,5.0,65,0.00,,,0.00,Wunderground v.1.13,2013-04-04 04:08:00,
2013-04-03 23:11:00,41.1,30.2,29.98,SSE,165,5.0,7.0,65,0.00,,,0.00,Wunderground v.1.13,2013-04-04 04:11:00,
2013-04-03 23:13:00,41.2,30.3,29.98,WSW,246,5.0,7.0,65,0.00,,,0.00,Wunderground v.1.13,2013-04-04 04:13:00,
2013-04-03 23:15:00,41.2,30.3,29.97,SE,145,5.0,6.0,65,0.00,,,0.00,Wunderground v.1.13,2013-04-04 04:15:00,
2013-04-03 23:17:00,41.2,30.3,29.97,SE,141,6.0,13.0,65,0.00,,,0.00,Wunderground v.1.13,2013-04-04 04:17:00,
2013-04-03 23:19:00,41.2,30.3,29.97,South,172,5.0,13.0,65,0.00,,,0.00,Wunderground v.1.13,2013-04-04 04:19:00,
2013-04-03 23:25:00,41.2,30.3,29.98,SSW,194,6.0,6.0,65,0.00,,,0.00,Wunderground v.1.13,2013-04-04 04:25:00,
2013-04-03 23:30:00,41.1,30.2,29.97,South,180,5.0,6.0,65,0.00,,,0.00,Wunderground v.1.13,2013-04-04 04:30:00,
2013-04-03 23:32:00,41.1,30.2,29.97,SW,229,5.0,6.0,65,0.00,,,0.00,Wunderground v.1.13,2013-04-04 04:32:00,
2013-04-03 23:33:00,41.1,30.2,29.97,SSW,206,5.0,6.0,65,0.00,,,0.00,Wunderground v.1.13,2013-04-04 04:33:00,
2013-04-03 23:35:00,41.1,30.2,29.97,SSE,163,5.0,5.0,65,0.00,,,0.00,Wunderground v.1.13,2013-04-04 04:35:00,
2013-04-03 23:40:00,41.0,30.1,29.97,SSW,213,4.0,4.0,65,0.00,,,0.00,Wunderground v.1.13,2013-04-04 04:40:00,
2013-04-03 23:41:00,41.0,30.1,29.97,SE,138,4.0,9.0,65,0.00,,,0.00,Wunderground v.1.13,2013-04-04 04:41:00,
2013-04-03 23:45:00,41.0,30.1,29.97,SSE,147,5.0,5.0,65,0.00,,,0.00,Wunderground v.1.13,2013-04-04 04:45:00,
2013-04-03 23:47:00,41.0,30.1,29.97,SSE,154,4.0,5.0,65,0.00,,,0.00,Wunderground v.1.13,2013-04-04 04:47:00,
2013-04-03 23:48:00,41.0,30.1,29.97,SSW,207,4.0,6.0,65,0.00,,,0.00,Wunderground v.1.13,2013-04-04 04:48:00,
2013-04-03 23:52:00,41.0,30.1,29.97,SW,222,5.0,6.0,65,0.00,,,0.00,Wunderground v.1.13,2013-04-04 04:52:00,
2013-04-03 23:53:00,41.0,30.1,29.97,NW,314,4.0,6.0,65,0.00,,,0.00,Wunderground v.1.13,2013-04-04 04:53:00,
2013-04-03 23:55:00,41.0,30.1,29.97,SSE,157,4.0,5.0,65,0.00,,,0.00,Wunderground v.1.13,2013-04-04 04:55:00,
2013-04-03 23:57:00,41.0,30.1,29.97,SSE,167,4.0,5.0,65,0.00,,,0.00,Wunderground v.1.13,2013-04-04 04:57:00,